GFSGL_700_rhum_024.txt.gz
RH
62 66 63 62 66 71 82 83 91 95 99 99 100 98 99 100 100 100 99 92 73 72 85 69 42 29 17 20 31 39 36 41 42 42 36 32 21 18 20 16 17 20 21
63 64 70 76 82 85 94 99 99 100 99 100 100 99 99 100 100 100 97 79 71 76 72 46 36 17 19 29 55 80 52 46 51 40 36 23 18 19 15 19 24 27 25
73 64 68 76 89 98 99 99 100 99 100 99 97 98 98 100 100 96 93 86 83 76 48 40 22 15 17 24 70 92 60 51 50 38 24 17 16 16 19 23 24 24 26
54 59 68 79 84 88 93 100 100 97 99 98 98 97 98 96 98 95 92 92 79 52 47 31 15 17 20 28 44 53 47 49 41 24 16 18 15 19 21 22 21 22 29
57 73 85 91 90 88 99 100 98 97 96 99 97 95 97 98 95 94 89 84 68 53 44 15 16 22 26 31 61 52 49 43 25 16 19 14 16 17 20 21 20 20 44
31 39 72 92 77 72 84 99 100 100 100 98 93 94 99 95 92 94 88 74 57 52 20 15 17 21 25 32 41 48 46 34 17 19 15 13 14 16 18 19 19 18 46
32 37 42 46 61 74 94 97 99 99 99 98 98 97 96 95 97 95 85 65 48 24 16 16 18 21 25 29 38 46 46 25 18 20 13 13 14 15 14 13 15 18 55
43 45 49 60 82 96 99 99 99 98 96 99 99 96 95 98 96 96 90 49 22 19 17 19 21 26 30 33 40 49 48 22 19 18 12 13 14 14 14 12 12 15 50
45 52 68 84 99 98 99 99 98 99 97 97 97 97 96 97 95 68 41 22 20 19 20 22 25 30 36 37 42 55 54 22 22 18 13 13 13 14 14 13 11 14 31
53 64 81 100 99 100 97 98 99 98 96 97 96 96 96 85 74 45 24 22 21 22 23 27 30 35 41 43 46 61 64 26 23 19 14 14 14 15 15 14 12 14 29
65 80 86 99 100 96 96 99 100 98 97 95 94 95 82 67 54 28 23 23 26 26 28 33 38 42 47 51 54 67 71 36 24 22 15 15 15 17 16 16 16 18 30
54 53 68 74 82 89 89 91 90 78 74 71 60 52 51 45 30 26 25 26 34 34 34 40 46 52 54 60 64 78 81 55 25 25 18 16 16 17 17 16 16 20 30
56 57 63 75 76 67 67 65 54 39 28 24 24 22 22 23 24 23 27 33 39 42 46 49 51 58 64 66 73 86 93 89 40 24 24 17 18 17 18 17 16 16 24
59 61 65 66 58 42 29 24 24 24 24 24 24 25 27 27 29 39 41 44 50 56 57 67 69 63 66 68 79 96 97 100 77 29 26 22 20 19 20 18 17 16 17
58 52 40 27 23 22 22 22 23 25 28 28 28 29 30 27 28 36 52 60 66 74 80 77 77 79 72 67 80 95 100 100 88 46 26 27 23 20 22 24 20 17 16
28 23 20 20 22 23 24 25 28 29 30 31 33 35 32 32 28 28 31 41 65 94 98 74 75 73 91 91 86 86 100 100 100 87 29 27 28 26 28 34 29 18 16
18 22 26 27 28 29 28 28 26 24 20 14 11 9 8 8 7 8 8 9 10 33 93 99 99 99 99 98 94 83 97 100 100 95 45 28 28 30 32 37 37 24 16
29 31 32 32 32 32 30 21 12 9 8 8 8 6 6 6 6 7 8 10 10 34 59 79 86 82 98 99 99 93 100 100 100 98 78 32 31 34 36 38 40 35 20
35 35 35 34 30 17 10 9 10 9 8 6 6 6 6 6 6 6 7 9 11 15 48 38 82 91 94 97 93 78 99 100 100 99 96 64 41 56 52 54 48 42 29
37 37 33 17 10 11 12 11 10 8 7 7 7 6 6 6 6 7 10 12 18 18 15 19 90 95 91 85 93 83 91 98 96 98 100 99 86 85 80 92 83 54 41
38 21 10 10 12 12 12 11 10 9 8 7 8 10 12 12 12 13 17 26 53 48 93 69 82 87 93 99 100 96 86 96 97 97 99 100 98 87 88 91 94 91 56
15 10 11 12 12 12 11 10 9 9 8 9 12 16 19 22 22 22 44 64 86 78 95 100 100 86 100 100 100 94 89 94 89 97 97 100 99 94 90 91 99 96 79
10 10 11 11 12 11 10 11 10 8 12 16 20 22 28 35 39 37 49 91 100 100 100 100 100 95 100 100 96 90 93 100 100 100 99 98 99 97 96 98 98 96 96
10 10 11 12 11 10 12 11 8 13 20 23 30 39 46 50 52 51 53 91 100 100 100 100 100 100 100 100 100 100 100 98 100 99 100 99 99 98 95 97 97 98 96
10 11 12 11 11 13 13 9 14 23 26 37 48 55 58 60 60 63 60 70 98 100 100 100 100 100 100 100 100 100 99 100 100 100 100 100 99 100 99 100 100 100 99
11 12 11 11 14 14 9 12 26 29 37 53 61 66 68 68 68 69 69 71 87 100 100 100 100 100 100 100 98 99 99 99 100 100 100 100 100 100 99 100 98 100 100

GFSGL_700_rhum_027.txt.gz
RH
47 62 62 72 73 74 78 81 89 97 99 99 96 98 85 83 98 79 98 98 99 88 80 74 75 63 44 29 14 15 16 20 24 30 30 37 33 22 16 16 12 12 13
67 67 69 70 71 75 85 99 98 99 99 100 100 79 80 99 80 99 94 98 95 91 73 76 68 49 44 15 14 15 18 24 32 28 39 33 21 17 17 12 13 16 18
67 58 62 66 67 74 81 97 100 98 80 100 100 97 99 87 90 87 99 95 91 81 83 77 56 48 24 15 15 17 19 28 30 35 37 27 18 18 12 11 14 16 18
63 61 52 49 64 75 82 93 88 94 98 100 96 100 98 100 100 99 96 95 79 87 88 69 53 42 16 18 17 20 23 26 37 42 38 23 19 15 10 11 13 15 15
45 42 35 36 37 59 89 88 86 99 98 99 99 100 100 98 98 97 95 86 87 98 84 62 54 22 17 18 20 25 25 30 42 45 35 21 19 11 10 11 11 11 12
37 36 31 27 32 42 80 69 90 100 100 100 81 98 100 92 96 96 97 96 100 99 75 65 33 21 18 20 22 26 30 36 43 48 34 21 18 10 10 10 11 11 11
26 29 40 43 44 48 60 87 100 100 92 100 94 98 100 98 95 96 98 95 99 91 80 46 24 21 20 22 25 27 33 40 48 52 35 22 17 10 10 11 12 11 11
42 44 42 43 48 61 88 99 99 90 95 98 99 98 96 97 96 96 96 96 84 66 44 26 24 22 22 24 29 31 38 44 54 50 40 23 16 10 11 14 15 13 12
36 36 41 52 68 81 94 96 98 96 94 95 94 95 96 97 97 95 94 80 70 50 27 24 24 26 27 29 33 37 43 50 61 55 46 25 18 11 12 15 16 16 14
45 53 57 62 73 85 93 92 92 85 89 94 95 97 91 76 80 69 70 63 50 30 26 24 26 32 36 37 39 44 47 63 66 65 59 28 21 12 12 15 16 16 15
56 57 54 48 44 44 46 56 66 70 76 77 66 50 33 31 29 33 37 32 28 26 26 26 32 43 46 48 50 51 54 71 75 78 75 35 24 16 14 15 18 17 16
58 48 40 40 40 46 55 63 61 48 32 24 22 22 23 24 25 25 26 28 31 32 32 34 41 53 57 61 63 58 65 76 80 92 92 73 27 23 16 16 18 19 17
47 42 43 46 48 47 39 28 20 19 19 20 22 22 24 26 27 30 32 34 35 39 40 45 54 64 72 71 70 69 70 72 89 98 97 100 50 26 21 16 18 21 20
48 48 45 36 28 22 18 18 22 24 25 26 27 26 26 26 25 24 22 24 29 36 38 43 59 78 84 81 80 84 86 80 86 100 99 100 84 30 26 21 20 26 27
49 37 28 21 18 21 26 27 28 29 29 29 27 20 14 10 8 8 8 8 7 8 8 14 30 82 100 88 75 90 99 95 91 98 100 99 99 48 28 25 25 32 34
31 23 19 24 29 30 30 30 30 30 24 13 10 9 9 9 9 8 6 6 6 6 7 8 10 16 90 91 98 99 98 99 95 100 98 100 99 94 30 28 29 32 37
20 24 32 33 33 31 31 30 24 14 10 10 11 12 12 12 10 8 6 6 6 7 7 8 9 18 24 64 100 98 99 96 94 90 97 100 100 99 37 30 33 36 38
33 36 36 36 34 33 26 17 12 10 10 10 11 10 9 9 7 6 6 7 7 8 10 11 11 31 100 94 81 82 99 87 82 94 100 99 97 98 55 33 38 44 44
40 41 39 36 32 21 12 11 11 11 11 10 9 8 8 7 6 8 11 12 12 12 14 21 30 21 46 90 85 100 98 100 93 90 97 94 98 98 78 42 49 62 68
45 40 38 31 17 11 11 12 12 12 11 9 7 7 7 6 6 8 11 14 16 18 26 39 66 72 64 21 63 100 99 99 96 93 94 95 98 100 98 67 71 88 90
44 40 31 15 12 11 12 13 13 12 9 7 8 7 7 9 11 13 18 25 27 25 42 64 80 100 100 38 97 100 100 99 96 89 99 97 99 98 100 95 84 93 92
44 32 15 12 11 12 14 14 12 9 8 8 7 8 14 16 21 28 36 40 42 39 57 93 96 96 100 100 93 99 100 99 100 99 98 99 100 98 100 100 91 95 96
35 17 11 11 12 13 14 12 9 8 9 7 9 15 18 25 36 46 48 49 50 46 52 97 100 100 100 100 100 96 98 100 100 99 99 100 100 98 98 100 100 98 98
21 13 11 11 12 13 12 9 9 10 7 8 17 22 26 39 51 56 57 58 58 57 58 82 100 99 98 100 100 100 99 96 96 100 100 100 99 100 97 97 99 100 98
17 11 11 12 12 12 9 9 11 9 7 16 24 25 35 47 54 58 57 55 63 66 66 88 99 100 100 100 100 100 99 99 100 100 99 100 100 100 100 99 100 100 98
12 11 11 12 12 9 9 11 12 8 12 24 28 30 34 39 41 43 44 39 36 58 75 80 100 100 100 100 100 100 100 100 100 98 97 100 100 99 100 99 99 99 100

GFSGL_700_rhum_030.txt.gz
RH
73 72 74 57 52 64 80 88 87 92 96 95 100 99 98 99 92 80 100 86 93 100 97 96 78 69 70 64 52 46 16 18 39 42 88 95 30 21 26 24 21 16 7
51 36 34 52 62 63 71 74 76 83 92 100 99 95 98 98 81 94 92 91 89 96 95 86 79 80 76 58 51 36 17 40 36 17 38 27 34 31 29 24 20 8 6
47 61 69 66 62 68 82 60 66 73 79 92 99 93 100 97 83 85 97 98 98 96 92 92 88 90 79 56 64 58 80 76 60 21 20 25 30 35 29 24 14 7 6
60 60 59 51 51 56 54 57 70 89 98 98 98 94 91 100 80 96 93 98 98 96 94 89 94 97 73 58 76 95 82 74 62 25 24 27 36 36 28 23 10 7 8
51 41 46 54 50 41 36 28 39 76 100 100 99 84 99 87 98 99 98 96 94 96 96 92 99 96 70 64 49 48 45 63 34 28 34 33 41 39 24 19 9 7 12
51 38 34 30 29 25 31 38 40 63 84 66 90 93 99 93 89 97 93 96 97 94 92 99 100 93 78 51 31 27 26 45 32 31 33 38 45 42 27 19 9 9 14
28 27 24 24 34 41 43 47 53 67 82 95 91 99 100 99 92 96 96 96 92 92 96 100 78 68 48 28 27 26 23 27 36 42 39 42 49 46 29 20 10 11 16
22 24 30 33 33 35 40 49 59 74 97 88 95 94 90 95 93 95 94 92 88 84 88 81 67 55 34 27 32 29 27 30 36 38 43 49 56 54 32 21 11 11 16
28 30 31 35 41 47 55 68 79 82 82 88 90 76 85 82 86 80 65 43 38 34 46 54 52 38 29 29 36 36 36 45 44 42 46 51 58 60 38 24 14 12 14
35 39 43 50 54 56 57 56 40 36 44 41 41 42 41 39 31 25 26 24 23 24 24 25 25 26 31 30 39 45 46 66 64 52 54 62 68 69 56 28 19 12 14
44 49 54 53 46 38 33 31 28 25 26 24 20 20 21 21 22 24 26 27 27 26 27 28 31 33 36 40 42 50 49 71 85 79 69 70 76 80 79 47 24 16 14
54 58 54 44 37 34 32 27 23 19 17 18 22 24 25 26 26 27 27 27 27 25 20 18 22 28 34 48 54 56 63 78 100 99 75 88 95 97 95 80 31 22 17
62 59 50 42 39 33 26 19 17 20 24 26 26 26 25 24 22 18 11 9 9 9 9 9 8 8 10 29 54 69 85 96 92 90 82 81 100 99 95 92 46 27 20
66 58 49 42 33 24 18 22 26 27 27 26 25 25 20 13 10 9 8 8 8 9 9 10 9 7 8 10 80 91 86 84 85 92 100 98 100 100 99 99 82 28 24
65 56 44 33 22 22 29 30 30 29 28 27 21 14 10 9 9 9 9 8 7 7 7 7 6 5 6 11 48 61 100 99 98 92 100 99 95 97 100 99 95 41 26
64 54 33 22 28 32 34 33 31 32 24 16 11 10 10 10 10 10 8 6 7 6 6 6 6 7 15 28 24 67 74 95 100 86 99 99 97 97 100 99 100 85 28
62 28 25 32 35 36 36 34 29 23 16 12 11 11 11 12 11 9 6 6 6 6 7 7 8 9 11 17 66 71 94 73 83 99 100 99 90 85 92 100 99 96 34
28 29 36 39 39 38 34 30 22 15 12 12 12 12 13 12 10 6 6 6 6 7 9 11 11 12 16 23 26 78 100 98 100 65 99 98 93 94 98 97 99 95 45
35 41 43 43 40 38 33 24 16 13 12 13 13 14 14 10 6 6 6 8 9 11 13 16 17 20 33 52 50 31 80 100 99 96 78 95 84 89 97 100 99 96 48
45 47 47 44 41 38 28 19 14 13 13 14 14 14 11 6 6 6 6 9 13 21 26 29 28 29 68 86 97 100 68 80 84 99 96 97 94 86 92 97 100 95 60
52 51 49 47 43 35 25 19 15 14 14 14 14 11 6 6 6 7 10 14 24 33 37 38 36 34 81 100 100 100 90 99 100 100 100 99 92 96 96 99 100 97 78
56 55 52 49 43 33 23 16 13 14 14 13 11 8 6 7 8 11 15 24 39 44 44 44 43 42 73 100 100 100 99 100 100 100 100 100 94 100 99 100 99 98 86
62 58 56 50 39 26 17 13 13 13 13 10 8 7 7 8 12 17 21 32 46 49 47 50 51 50 72 100 100 100 100 100 99 89 100 100 100 99 100 100 99 98 93
67 65 56 43 28 18 14 13 13 12 10 8 8 8 8 11 17 21 25 31 42 46 39 34 46 59 78 100 100 100 100 100 100 100 100 99 93 95 99 100 99 99 96
75 66 52 34 20 15 13 13 12 10 9 9 11 10 12 18 23 26 29 30 32 37 37 33 35 62 80 100 100 100 100 100 100 100 100 98 100 100 100 100 99 98 94
80 63 41 26 18 14 13 13 11 10 11 13 13 13 20 26 26 29 30 27 28 33 36 35 33 57 74 97 100 100 100 100 100 100 100 100 100 100 99 100 100 99 95

GFSGL_700_rhum_033.txt.gz
RH
71 73 74 80 79 78 61 55 60 69 77 79 84 89 88 100 99 99 93 100 92 98 96 99 95 95 82 77 75 75 71 71 79 89 99 99 99 94 81 40 20 23 27
54 66 69 72 64 37 56 66 59 60 75 76 73 77 82 95 91 99 99 100 98 94 100 95 95 89 83 76 73 82 80 86 95 74 81 97 96 95 83 36 23 26 30
64 68 71 36 46 68 68 55 53 52 57 59 64 79 92 90 100 98 95 86 100 98 96 94 94 95 93 88 88 93 97 92 99 100 87 98 98 96 95 54 29 30 30
29 39 50 58 57 54 53 52 68 64 53 50 75 98 96 97 98 100 99 98 96 95 98 96 95 94 95 99 99 100 94 93 96 93 94 98 100 97 98 62 36 42 31
65 70 62 56 51 52 60 46 37 28 30 40 81 100 99 100 97 96 97 99 94 99 94 88 91 88 90 91 100 93 88 86 78 82 90 94 97 99 100 84 48 40 35
55 50 53 58 50 32 28 25 29 40 43 47 60 79 80 91 100 100 91 88 86 96 92 90 90 83 77 97 79 69 61 39 38 41 59 70 96 93 73 53 48 46 39
50 52 41 30 27 22 25 32 34 36 41 50 65 76 91 93 98 92 92 83 90 86 81 68 43 43 55 74 70 63 44 32 31 31 39 52 73 88 55 48 56 53 43
33 30 28 21 22 26 26 30 35 41 49 61 73 85 72 72 74 60 56 74 58 35 23 20 22 24 28 42 50 48 42 29 26 34 36 51 84 100 54 58 62 59 50
28 21 21 24 27 33 37 42 48 55 61 60 42 34 37 32 26 33 30 18 18 20 22 24 25 27 28 29 30 31 30 30 34 30 30 48 70 87 61 71 69 71 59
22 25 30 34 37 42 45 48 45 38 31 29 24 21 17 16 17 18 22 23 24 23 23 22 18 14 11 11 18 33 40 38 62 71 68 63 78 77 69 75 80 80 75
32 37 38 38 41 46 47 40 34 32 29 24 18 17 18 21 23 23 25 24 21 17 11 8 8 8 8 10 10 9 15 46 60 89 100 98 84 72 74 80 89 89 85
44 45 46 49 53 51 45 40 36 32 25 22 20 21 23 24 23 22 21 14 9 9 9 9 9 8 8 7 9 10 9 20 85 87 100 96 98 96 97 92 84 76 74
56 57 59 60 58 52 45 40 32 24 24 23 23 24 25 25 22 17 12 10 10 11 11 10 9 7 5 5 6 7 6 8 92 97 86 90 99 88 98 97 99 95 92
62 68 69 65 60 52 44 30 25 27 27 26 27 27 24 19 15 11 11 11 12 12 10 8 5 5 6 5 5 6 10 8 19 76 100 74 93 96 97 99 95 100 100
68 74 72 67 62 50 29 28 30 31 30 29 28 23 20 14 12 12 12 13 12 11 7 4 4 5 5 5 6 8 60 94 93 88 77 98 98 98 91 99 94 99 97
78 80 74 71 54 31 32 34 34 33 32 29 25 20 15 13 13 14 14 14 12 6 4 5 5 5 5 5 6 7 10 49 88 100 92 90 100 100 100 100 98 94 100
86 82 79 53 33 34 38 39 36 34 32 28 23 19 16 16 15 14 15 14 8 4 5 5 6 6 8 9 9 10 12 14 67 100 100 93 81 99 98 100 99 100 98
89 88 52 32 36 42 43 40 38 36 32 28 26 22 21 15 14 15 15 10 5 5 6 7 8 11 15 18 18 18 26 30 56 100 100 95 93 100 98 100 97 93 98
89 46 38 49 46 47 44 42 41 38 32 27 23 20 18 15 15 16 14 7 5 6 7 9 14 21 27 28 26 29 70 67 46 99 100 100 100 100 98 100 96 98 100
91 93 88 58 52 49 48 46 44 39 33 25 20 18 15 15 15 14 10 6 6 7 9 15 27 31 32 33 32 42 90 98 100 63 66 92 90 94 98 100 97 91 99
95 95 89 86 70 58 52 49 44 36 28 23 18 16 14 14 13 10 7 7 8 10 13 21 36 37 38 39 36 51 100 100 100 100 98 100 99 100 98 100 94 100 99
94 92 93 92 85 64 56 52 45 38 30 23 17 14 14 12 10 8 8 9 11 14 19 23 37 41 35 37 40 52 98 100 100 100 100 98 100 100 98 97 100 100 100
94 93 95 94 75 68 62 56 48 40 28 20 15 14 12 10 9 9 10 12 16 19 23 25 29 39 36 35 45 73 95 98 100 100 100 100 93 100 100 100 100 100 100
94 95 96 89 84 78 71 61 50 36 24 17 14 13 11 10 11 12 14 16 19 24 25 24 26 31 36 35 45 76 100 99 100 100 100 100 100 100 100 100 99 100 100
96 96 96 96 94 91 83 63 45 31 21 16 14 12 12 13 14 15 19 23 25 26 27 34 29 29 32 34 47 72 98 100 100 100 100 100 100 100 100 100 100 100 100
97 97 97 96 93 88 80 62 42 27 20 16 15 15 15 16 17 21 27 30 28 27 41 44 46 44 38 35 43 66 93 100 100 100 100 100 100 100 100 100 100 99 100

GFSGL_700_rhum_036.txt.gz
RH
88 79 72 66 77 84 84 85 79 73 61 65 61 56 62 68 77 86 88 82 99 98 99 98 100 99 95 91 89 90 94 87 80 71 71 71 72 64 59 80 76 41 21
97 96 98 89 75 80 74 63 49 60 67 62 56 55 66 74 80 97 97 97 96 99 100 100 100 97 96 95 96 91 88 90 90 78 77 78 79 81 78 63 70 58 31
70 82 92 73 69 78 59 52 58 58 60 58 62 74 73 83 90 96 74 93 99 91 99 100 98 96 92 94 89 90 96 100 98 96 88 92 90 100 100 80 70 51 37
53 62 51 48 58 52 57 52 53 54 53 59 42 32 33 42 98 68 95 96 99 99 100 95 98 93 92 89 89 91 89 98 100 98 98 95 99 99 100 97 86 71 53
36 41 33 46 56 56 52 57 54 57 33 26 28 39 44 62 75 98 97 92 96 100 100 96 92 90 91 89 77 55 62 96 99 90 80 74 68 68 92 100 98 86 80
40 51 60 60 56 52 57 58 30 26 21 29 33 36 42 58 70 77 95 99 92 98 92 87 79 80 56 24 23 24 34 55 62 70 63 57 46 45 53 76 95 92 78
48 52 51 54 56 55 32 27 19 21 25 29 34 43 49 59 80 88 70 61 67 51 40 27 20 20 21 22 23 24 25 27 36 39 46 32 39 40 53 74 78 86 82
48 51 48 39 32 28 21 21 24 29 33 39 46 52 58 56 40 32 28 25 20 15 16 20 21 20 21 21 16 11 10 10 13 27 34 32 41 51 60 76 86 96 98
44 37 33 30 23 20 25 29 31 36 42 45 45 38 30 28 24 21 16 15 16 18 20 21 20 16 10 9 9 9 9 8 8 10 20 45 48 55 78 87 78 93 92
34 33 28 21 23 30 31 33 37 42 44 40 34 31 28 23 21 18 17 18 19 21 20 16 12 10 11 11 11 10 9 8 8 7 8 14 41 57 83 85 91 95 91
33 26 23 29 36 37 39 42 45 47 44 38 34 29 24 24 20 18 19 20 20 17 16 14 13 14 14 11 9 7 6 5 5 6 6 9 54 58 81 89 76 95 95
28 28 36 41 45 48 50 52 53 51 46 39 31 26 26 23 19 19 21 20 18 16 15 16 16 15 9 7 3 3 4 5 5 5 5 5 30 57 61 64 100 86 91
31 40 47 52 55 58 59 59 57 52 44 32 28 27 26 24 22 22 21 19 16 16 16 17 14 9 8 4 3 4 4 5 5 6 11 10 25 68 94 98 87 88 95
42 50 55 57 63 68 68 64 57 49 31 30 31 30 28 27 25 23 21 19 18 19 18 14 11 10 5 3 3 4 5 5 6 8 34 82 92 77 91 99 94 94 97
55 64 69 68 73 75 70 63 50 30 33 35 34 31 29 28 25 24 22 21 21 20 15 12 12 10 4 3 4 5 6 6 7 8 14 82 92 99 83 97 92 97 98
75 86 91 86 82 77 69 57 31 34 38 38 34 32 31 30 28 25 24 22 20 16 14 14 14 8 4 4 5 5 7 9 10 10 13 46 89 96 94 95 95 86 96
98 100 99 96 87 74 59 32 37 43 41 39 37 37 35 33 28 27 25 22 18 16 15 15 11 6 5 6 8 11 12 15 15 16 19 63 100 100 99 84 91 93 97
100 98 97 96 87 63 53 65 64 53 47 44 42 40 37 35 28 26 24 21 16 15 15 12 8 6 7 9 15 20 21 20 20 27 45 44 100 95 98 82 88 94 98
100 98 98 95 85 90 94 93 93 91 72 59 52 44 41 38 32 26 23 20 17 15 14 10 7 8 10 14 24 28 28 25 26 58 74 65 100 100 99 98 100 98 100
97 95 95 96 95 95 95 95 94 94 93 81 55 47 43 37 28 23 20 17 15 13 10 8 8 12 16 21 31 33 31 30 38 95 100 99 78 96 97 95 97 98 99
96 95 94 95 95 95 96 95 95 95 90 68 58 62 54 36 29 25 20 15 13 11 9 9 11 14 20 22 30 36 33 33 54 99 100 100 93 54 90 100 100 99 99
96 96 95 95 95 96 95 94 94 94 91 92 90 82 60 40 33 25 18 14 12 10 11 12 15 19 22 22 24 34 35 35 62 100 100 100 100 100 100 99 100 100 100
95 96 95 95 96 95 94 93 96 95 95 95 90 63 46 39 29 21 16 13 12 12 15 18 20 23 26 29 28 31 35 38 64 97 96 100 100 100 100 97 100 100 100
95 96 95 95 94 96 96 96 96 96 95 88 78 67 50 33 24 19 16 14 15 16 22 26 26 25 37 40 31 31 34 42 70 92 99 100 100 100 100 100 99 100 100
96 95 96 96 96 96 97 98 100 100 98 95 89 72 45 29 22 20 18 18 19 22 31 32 28 36 42 45 49 47 36 44 74 95 96 100 100 100 100 100 100 100 100
95 96 98 98 98 100 100 100 99 99 97 92 74 44 29 26 24 24 24 24 25 36 41 32 31 35 55 64 63 58 48 45 72 98 98 100 100 100 100 100 99 100 100

GFSGL_700_rhum_039.txt.gz
RH
60 59 73 74 68 57 69 96 100 100 98 74 73 73 66 64 65 72 86 90 99 99 100 99 97 99 98 99 100 98 96 96 91 84 82 78 72 85 94 86 85 78 74
58 52 81 81 92 98 94 100 100 57 65 58 65 67 67 62 73 82 92 100 100 82 95 94 98 99 99 100 100 98 97 97 95 85 68 51 68 85 93 100 99 93 88
61 61 89 88 80 67 67 84 78 55 56 55 57 58 59 69 65 39 42 46 98 80 89 91 99 100 100 100 97 96 96 96 97 70 28 36 73 99 100 100 97 97 98
70 68 58 47 42 53 60 54 53 62 60 56 56 58 39 26 28 39 37 96 73 100 88 100 99 99 99 98 96 94 87 64 41 27 24 22 54 64 98 92 90 92 83
53 43 26 32 36 40 47 49 56 58 56 63 41 25 21 26 33 42 60 96 91 97 86 100 100 100 98 89 54 26 21 21 22 21 21 25 25 32 49 64 75 76 72
21 27 28 29 39 48 49 56 54 59 51 29 20 22 27 34 44 59 70 76 93 90 100 83 70 64 39 18 19 20 21 21 19 16 12 14 12 26 32 47 66 79 90
22 26 31 39 49 52 57 58 52 33 25 19 25 31 35 42 49 56 57 72 56 46 31 25 18 16 16 15 16 16 13 11 10 10 10 10 11 15 41 52 55 70 94
32 33 43 48 54 52 44 37 32 21 22 27 28 32 38 43 44 40 32 30 24 19 16 17 15 16 16 14 13 13 13 15 14 12 10 10 9 9 11 24 47 59 76
41 47 52 55 45 39 34 26 21 25 29 30 33 37 42 41 36 32 28 23 20 19 16 16 17 17 15 13 14 17 18 15 9 7 6 4 4 4 5 9 39 43 59
48 55 47 40 36 30 25 22 29 32 34 37 42 44 44 41 37 32 28 26 21 18 19 20 18 15 14 14 16 17 13 7 6 5 3 2 2 3 4 6 7 49 67
49 43 38 35 31 25 27 34 38 40 43 46 49 49 46 43 39 31 27 22 21 21 21 19 17 16 18 19 18 12 8 7 6 3 3 2 3 4 4 5 6 75 86
39 34 34 32 28 30 37 43 46 49 53 56 55 53 49 44 32 30 25 24 23 22 21 21 22 22 21 19 14 10 10 7 4 3 3 4 4 5 5 7 6 59 86
35 35 35 32 33 42 48 50 54 62 64 62 60 56 49 35 34 29 27 25 25 24 25 25 24 23 20 16 12 12 11 6 4 4 4 4 5 6 8 49 28 60 77
37 37 36 37 45 54 60 62 67 69 69 64 57 50 35 35 33 30 27 28 29 29 28 25 24 23 20 15 14 14 10 5 4 4 5 5 6 7 8 77 99 62 91
39 39 41 46 56 69 79 80 78 76 68 57 40 33 37 37 33 31 32 32 32 30 29 28 26 24 20 16 15 15 10 5 5 6 8 8 8 10 11 67 93 100 88
40 43 49 62 75 90 96 96 92 78 54 39 38 45 62 48 56 41 37 36 34 33 31 29 27 27 22 17 16 14 7 5 6 8 10 12 12 16 17 66 96 99 98
46 58 70 83 99 100 100 97 84 75 72 49 81 93 89 80 67 61 68 50 36 34 34 32 28 26 21 16 14 10 6 6 9 14 15 15 17 28 100 100 100 99 91
61 77 97 100 100 98 97 96 94 90 92 95 96 96 96 90 88 91 74 43 42 39 35 30 27 22 17 14 10 8 7 9 14 20 20 20 44 44 84 100 98 79 99
97 100 100 100 100 96 95 94 94 95 95 94 94 94 95 95 93 64 54 63 64 52 36 32 26 18 14 11 9 8 10 14 20 25 25 28 82 75 93 100 83 76 97
100 99 99 96 95 96 96 95 95 95 95 95 95 94 94 94 84 86 92 93 78 39 34 30 22 16 12 10 10 10 14 18 22 29 31 40 98 100 75 100 100 84 96
96 95 95 96 96 96 96 96 96 96 96 95 95 96 96 97 97 97 96 63 40 39 34 26 19 14 12 11 13 14 18 22 23 29 34 52 99 100 100 82 94 84 81
95 95 95 96 96 96 96 95 95 96 95 96 97 96 97 96 95 90 75 68 56 41 26 20 16 14 14 15 18 19 23 28 26 30 36 64 97 100 100 90 99 100 99
96 96 96 96 95 96 96 95 96 96 97 98 98 98 99 100 100 97 92 78 58 30 23 20 18 17 20 25 25 27 34 38 30 29 35 64 97 100 100 100 100 99 90
96 95 95 95 96 96 96 96 98 99 97 97 99 100 100 100 100 95 78 54 30 25 24 23 22 22 28 32 30 36 41 44 45 34 36 62 92 100 100 100 100 100 98
96 96 96 95 95 96 97 97 97 98 100 100 100 100 97 86 68 51 37 32 29 29 29 28 32 37 42 33 31 44 61 63 57 46 41 70 92 100 100 100 100 99 98
95 93 92 91 91 92 93 93 91 86 78 70 62 57 53 48 44 40 38 35 35 32 34 37 46 52 42 34 45 68 68 70 67 56 52 77 95 100 100 100 100 100 100

GFSGL_700_rhum_042.txt.gz
RH
61 53 58 62 69 67 52 61 91 94 100 96 80 87 89 79 80 82 84 79 86 97 100 99 85 84 96 79 90 99 100 100 89 89 90 86 85 87 75 48 52 75 82
61 69 82 77 75 81 90 99 78 100 99 48 59 62 53 64 77 72 75 86 97 100 100 94 95 96 79 93 99 95 95 99 94 84 80 77 80 61 31 35 58 90 87
58 68 82 90 68 78 76 84 73 86 99 56 53 50 56 67 66 76 79 84 78 46 47 52 99 78 98 96 100 97 96 96 93 79 47 23 18 21 24 37 44 93 98
50 51 63 66 61 62 55 55 74 60 75 68 65 62 64 71 74 57 31 30 36 41 72 98 72 99 99 98 79 96 98 84 56 23 16 14 15 14 15 16 18 25 40
26 30 50 58 44 48 50 56 48 54 57 59 70 72 73 50 28 24 26 32 39 44 84 82 99 90 100 99 84 68 39 19 18 17 14 12 12 12 13 14 12 11 12
28 38 56 58 52 53 51 51 53 60 66 70 68 52 28 22 21 27 32 39 48 86 71 95 90 98 92 36 26 18 18 17 16 13 12 13 16 16 13 11 9 10 8
36 38 41 43 48 48 52 53 57 64 65 58 34 26 21 26 30 35 42 52 70 57 77 69 38 26 18 17 17 17 17 15 13 14 17 17 14 9 9 7 6 6 4
39 44 45 42 42 44 52 60 69 50 33 28 23 24 29 32 38 42 44 43 38 35 31 25 21 21 17 16 16 15 15 14 16 18 18 13 8 7 5 3 3 3 3
40 43 42 45 47 56 73 55 34 30 27 23 27 32 35 39 42 44 43 39 34 29 27 25 22 19 18 18 16 16 18 20 20 18 13 9 8 7 4 3 3 4 4
38 36 41 49 61 67 42 34 32 29 25 30 35 40 43 46 47 47 43 37 32 27 26 24 21 21 19 18 19 20 22 22 20 17 12 8 8 8 6 4 4 5 6
43 37 36 52 55 39 36 35 33 26 28 37 44 50 52 53 53 49 41 34 30 28 26 25 23 22 21 21 22 23 24 22 20 17 13 10 9 9 6 4 4 6 8
47 47 56 50 38 36 36 36 30 30 40 49 54 57 59 60 57 48 39 32 31 30 28 25 24 24 25 26 26 26 25 24 24 20 14 11 12 10 6 4 4 6 9
55 58 48 38 36 37 38 35 36 44 51 55 59 62 65 64 57 47 37 33 33 31 28 27 28 30 30 28 28 27 27 28 26 20 15 14 12 8 4 4 5 6 7
60 50 40 37 37 38 39 43 51 59 64 68 70 71 69 61 49 37 38 44 35 44 50 38 34 33 31 29 29 29 29 28 23 18 16 14 9 5 5 7 6 7 9
58 49 43 41 42 45 50 60 71 78 81 84 83 77 63 47 46 62 54 77 75 68 44 40 43 35 32 33 32 31 31 27 22 18 15 11 6 6 8 9 11 12 25
60 53 48 49 54 63 75 86 93 96 95 92 76 56 56 68 73 78 95 93 89 84 60 75 83 62 40 41 39 37 35 30 24 18 12 7 7 9 10 11 33 36 84
65 61 60 64 73 86 99 100 100 99 95 95 83 87 92 94 96 96 97 96 92 91 94 95 92 74 87 82 48 41 38 31 24 15 9 8 10 13 14 14 77 100 100
82 84 88 95 100 100 100 99 97 97 95 94 95 96 96 96 95 95 95 96 97 96 96 97 96 96 93 58 44 44 39 27 16 10 9 12 16 18 16 25 53 100 100
100 100 99 98 98 97 96 96 95 96 96 95 96 96 96 96 96 96 96 96 96 96 96 97 96 89 55 52 52 44 31 18 12 10 11 16 19 22 22 45 76 100 100
97 96 96 96 96 95 95 95 95 96 96 96 96 96 96 96 96 96 96 96 96 97 96 95 81 74 69 67 54 34 21 14 12 13 16 22 24 28 30 71 87 100 100
96 96 96 96 96 96 96 95 95 96 96 96 95 95 96 96 96 96 96 97 98 98 97 95 92 84 77 57 35 21 16 15 17 19 23 28 26 32 49 92 89 98 100
96 95 95 96 96 96 96 96 96 96 96 96 96 97 96 96 97 97 97 97 97 98 98 97 92 80 52 30 22 19 17 19 23 27 35 36 28 34 59 99 100 84 98
96 95 95 95 96 96 96 96 96 96 96 96 97 97 97 98 99 100 100 100 100 100 94 78 52 35 30 26 24 22 22 28 29 33 38 41 35 36 76 99 100 100 94
96 96 96 96 96 96 96 97 97 96 95 94 95 97 100 100 100 98 92 84 74 63 52 42 38 34 31 30 31 34 40 35 31 41 53 50 40 41 83 100 100 100 100
96 96 96 96 96 96 94 86 78 75 71 70 66 60 52 46 42 41 44 47 48 47 45 43 40 37 35 36 43 50 43 36 52 65 62 60 46 46 86 100 100 100 100
95 92 83 66 48 35 24 18 14 12 11 11 12 14 18 22 28 35 40 48 53 52 51 49 47 45 45 52 61 49 41 62 79 78 74 67 50 59 92 100 100 100 100

GFSGL_700_rhum_045.txt.gz
RH
54 53 59 61 62 56 69 70 65 78 80 87 87 99 95 95 94 82 85 83 83 74 83 97 99 73 100 100 99 84 90 71 86 99 96 85 81 95 93 90 73 53 35
52 52 53 66 95 98 96 82 100 96 98 80 99 99 68 67 76 63 76 81 81 81 85 100 93 99 99 97 83 100 100 98 99 92 93 83 87 88 58 29 22 19 16
53 52 52 52 60 68 74 73 79 77 72 93 83 51 71 82 73 71 71 69 74 93 98 100 100 100 98 49 71 100 97 98 89 92 77 88 64 22 15 14 13 12 13
33 36 41 45 49 58 65 73 74 77 74 81 82 71 63 68 62 67 70 73 78 89 86 63 84 71 44 85 89 73 95 71 53 66 66 30 15 14 12 12 15 17 16
28 27 25 33 50 54 62 65 73 61 63 62 67 61 62 68 72 75 81 71 38 34 34 39 51 52 78 91 72 97 55 87 84 43 17 14 14 12 14 17 18 15 8
28 24 35 35 41 52 58 53 53 56 61 68 67 67 70 74 80 74 35 29 30 36 41 55 45 81 95 45 59 36 98 42 18 16 15 14 14 16 19 19 15 10 7
32 24 38 44 43 51 57 57 52 51 58 60 65 70 73 58 34 28 28 33 36 40 42 46 47 44 41 66 53 32 19 18 17 17 15 15 18 21 20 17 12 9 8
33 29 37 46 49 49 53 53 52 52 56 61 76 54 32 27 26 30 33 36 39 42 45 46 42 40 42 33 22 22 19 19 18 16 17 20 22 21 19 15 12 10 9
28 34 44 44 47 48 46 46 48 54 68 72 35 29 26 27 32 36 40 44 47 46 44 42 38 30 25 24 23 21 21 19 18 19 21 23 23 21 19 16 14 12 11
37 36 44 49 45 48 56 63 69 79 48 32 30 28 31 37 43 48 50 51 50 46 41 34 27 28 28 26 24 22 21 21 23 24 25 25 26 28 27 21 16 14 12
46 45 42 50 57 58 76 82 60 35 32 32 33 36 43 50 55 58 57 54 48 40 33 30 30 29 28 27 24 24 24 25 27 28 28 29 33 35 31 23 17 14 10
48 48 45 50 61 79 67 42 35 34 35 38 43 50 59 64 66 65 59 51 44 37 32 32 32 31 27 25 32 31 28 30 30 31 32 36 39 37 31 26 20 16 9
49 52 49 58 72 69 47 38 36 37 41 45 53 62 68 72 71 66 59 47 35 32 36 38 32 37 58 85 80 35 39 36 35 36 42 48 44 38 37 30 21 15 10
54 54 62 70 69 54 44 41 41 45 51 57 65 73 79 78 74 66 54 42 40 40 43 60 91 96 95 66 45 62 63 72 63 70 79 70 46 43 38 28 21 14 8
58 58 69 71 62 54 51 51 53 58 67 75 83 88 89 84 75 63 56 57 56 90 96 96 96 96 96 78 75 89 94 90 94 95 87 63 51 46 39 25 12 7 7
64 69 77 73 68 64 64 65 70 79 88 98 100 100 96 94 90 89 89 91 96 96 95 96 96 96 95 95 97 96 96 96 95 93 74 58 52 45 36 18 8 10 10
74 79 85 85 83 81 84 87 91 99 100 99 98 98 95 94 95 96 96 96 96 97 96 96 96 96 96 96 97 96 95 96 93 74 68 61 49 38 21 11 9 12 14
88 94 99 100 100 100 100 99 98 97 96 96 96 96 96 96 97 97 97 96 96 97 96 96 98 98 96 96 96 96 96 92 84 77 69 50 29 18 12 10 15 15 18
97 97 98 99 98 97 97 96 96 96 96 96 96 96 96 96 96 96 97 97 97 97 98 97 97 97 97 97 97 95 92 90 84 72 49 29 16 13 12 15 21 20 30
100 98 97 96 96 95 95 96 96 96 96 96 96 96 96 96 96 96 96 96 96 97 97 97 96 96 96 94 93 93 92 85 65 41 26 18 16 17 19 23 25 23 64
96 96 95 95 95 95 95 94 93 95 96 96 96 96 96 96 96 96 96 97 97 97 98 98 98 99 99 99 96 92 77 52 36 26 21 18 19 22 34 32 27 34 79
95 95 95 95 95 94 95 95 94 95 96 97 97 97 97 97 97 97 96 97 98 98 97 98 98 97 92 82 69 54 44 36 30 26 23 23 26 31 39 39 32 47 94
95 95 95 95 96 96 96 96 96 96 96 97 97 97 97 95 89 82 76 71 70 68 64 61 57 54 52 49 46 43 39 35 31 28 28 31 31 39 49 45 36 71 100
96 96 96 96 96 96 96 96 97 97 95 80 56 36 26 19 16 15 15 15 18 22 27 34 40 45 49 50 49 45 42 40 37 40 40 35 45 60 60 48 43 88 100
96 96 96 96 96 92 79 49 23 12 10 8 7 7 7 8 9 10 11 13 16 21 27 34 42 50 55 55 53 51 50 50 56 52 42 54 71 69 66 48 57 96 100
86 67 40 20 11 10 8 6 6 6 7 8 10 10 11 11 13 15 19 24 31 37 42 49 57 62 61 60 57 58 66 70 56 50 73 84 82 79 70 52 77 98 100

GFSGL_700_rhum_051.txt.gz
RH
37 26 25 26 28 32 36 39 42 44 46 48 45 44 45 48 49 50 58 66 70 82 99 99 98 97 97 97 93 92 99 100 86 99 79 98 99 100 94 94 89 60 46
50 53 51 49 43 44 49 49 51 53 54 64 64 67 80 76 70 72 62 70 98 100 99 99 99 90 87 79 91 99 100 100 94 84 100 100 100 93 81 97 82 63 59
49 53 56 58 54 55 54 52 54 69 71 76 78 82 98 96 79 78 92 92 99 99 90 95 93 99 96 93 98 93 92 91 94 100 86 100 88 69 79 72 73 70 67
44 49 51 50 49 41 48 57 56 69 61 81 89 91 83 88 72 78 90 87 82 80 98 100 100 92 98 86 92 100 100 100 100 100 100 94 74 84 63 69 53 45 23
24 26 27 25 26 27 23 28 37 53 52 57 80 89 87 94 78 76 84 71 81 92 98 96 86 92 99 95 100 100 100 99 95 95 77 65 99 98 53 71 38 22 20
32 27 32 32 33 33 32 26 31 32 35 46 51 71 72 77 76 77 88 88 74 84 82 81 96 89 100 100 98 88 52 84 57 71 79 98 100 54 91 88 22 21 21
33 35 36 36 36 36 34 30 25 38 40 46 58 61 62 65 65 73 71 74 76 93 94 95 100 100 99 79 40 60 46 52 81 88 87 92 56 82 75 23 24 27 31
36 36 38 38 38 38 40 31 26 45 49 52 61 58 58 58 61 61 64 70 73 78 91 97 97 83 43 42 42 61 58 71 88 93 88 70 92 46 25 42 57 53 70
32 33 34 38 40 42 41 35 30 44 49 52 56 59 62 60 58 59 62 66 75 90 94 70 43 38 40 43 50 59 72 85 86 78 95 100 40 28 52 74 41 78 72
35 36 38 45 48 45 44 47 31 41 50 50 53 57 58 59 63 66 69 80 87 62 36 38 41 45 50 65 80 86 95 97 99 100 97 35 29 45 87 83 86 85 84
36 36 38 51 59 57 53 45 42 46 48 57 59 62 66 67 77 78 97 92 52 43 45 47 50 59 78 88 92 97 100 100 99 59 31 39 78 94 93 93 92 91 91
36 38 42 64 70 59 50 48 55 49 46 49 59 74 88 99 99 97 62 46 44 48 53 61 70 82 95 100 100 100 96 61 40 57 87 94 94 95 96 95 95 95 95
36 39 56 70 62 54 52 57 54 49 51 97 100 100 100 100 75 52 47 51 57 63 70 76 86 92 96 92 80 68 55 83 95 96 96 96 96 96 97 96 96 96 95
56 61 60 52 51 49 57 66 62 70 99 100 100 100 82 61 55 55 61 71 81 86 90 93 93 95 96 95 94 95 96 96 96 96 96 96 95 94 96 95 95 95 90
50 48 50 56 67 71 70 70 72 97 100 100 96 78 69 68 71 80 87 92 95 96 97 97 96 96 95 95 95 95 95 95 95 94 94 94 94 94 95 96 94 90 85
58 58 67 74 70 72 76 83 93 96 93 92 90 90 93 95 96 97 97 96 96 96 95 94 94 94 94 95 95 95 95 95 96 96 96 95 95 94 92 94 93 88 79
70 74 87 84 82 85 88 99 100 99 99 97 97 97 96 97 95 95 96 95 95 96 96 96 94 94 95 96 96 96 97 97 97 97 97 96 95 96 94 87 86 81 71
100 99 98 98 98 98 98 98 98 98 97 96 95 95 95 96 96 95 96 98 97 95 95 96 96 95 96 96 97 97 98 98 98 98 98 97 92 87 86 84 75 64 50
98 98 97 96 98 98 98 98 97 96 95 94 94 95 96 95 95 95 95 95 95 95 96 97 99 98 97 96 97 97 96 93 83 66 59 62 64 63 58 53 47 43 39
96 97 98 97 97 95 96 96 95 95 95 95 95 95 96 95 93 93 95 96 96 97 96 96 97 93 84 61 36 20 16 16 17 20 24 32 40 44 45 44 43 39 35
96 96 96 95 94 95 95 94 95 95 94 93 92 93 94 93 93 92 92 92 89 77 50 25 9 8 8 8 9 10 11 12 15 19 25 36 45 49 49 47 43 39 34
95 96 96 96 95 95 94 93 92 92 92 90 90 89 88 81 63 40 18 8 7 7 7 8 8 9 9 9 9 11 13 17 23 30 41 53 58 59 57 53 50 45 40
96 95 94 93 91 89 88 87 85 77 59 38 21 11 7 7 7 7 7 8 8 8 8 8 8 9 11 14 18 21 27 34 43 54 62 67 69 71 68 65 59 52 54
95 94 89 77 56 32 16 10 8 7 7 6 7 7 7 8 8 8 8 8 7 7 8 10 12 16 22 28 34 39 44 50 56 62 67 71 79 80 74 65 65 82 87
22 11 9 8 8 7 6 6 6 7 8 8 8 8 8 8 8 8 7 7 8 11 14 19 24 29 33 39 44 49 54 59 65 70 80 85 80 72 76 93 100 100 99
8 6 6 6 6 7 8 8 8 9 9 9 9 9 9 9 8 8 9 12 18 23 27 30 33 36 41 46 50 56 65 74 82 83 76 69 72 96 100 100 100 100 98

GFSGL_700_rhum_057.txt.gz
RH
13 19 22 25 28 30 32 34 35 38 41 47 50 55 58 58 63 72 68 70 75 74 72 70 67 68 70 74 72 67 68 64 92 95 92 86 90 89 97 99 100 100 97
19 17 17 20 24 27 28 30 33 35 38 39 42 43 43 46 50 55 59 53 52 54 51 59 62 67 76 64 56 54 79 99 97 93 84 88 90 98 99 100 84 81 92
31 26 24 21 20 20 21 24 28 32 35 37 38 38 40 41 42 44 44 48 66 78 71 58 58 67 65 61 73 97 99 94 88 96 100 92 100 93 100 99 100 100 94
45 42 42 43 42 43 38 27 28 29 31 33 37 40 45 48 49 59 58 60 79 80 80 94 95 98 100 77 93 95 99 91 86 96 96 99 99 98 92 99 88 100 100
36 35 35 39 45 50 52 51 48 51 53 53 50 56 57 58 64 73 77 76 68 71 90 98 86 88 96 96 98 86 80 86 100 99 96 100 94 100 100 99 100 100 88
30 29 33 38 38 43 50 55 60 61 57 59 58 59 54 50 60 80 90 95 91 84 94 100 100 100 96 99 98 79 76 91 100 97 97 99 98 100 100 99 80 89 83
34 38 40 37 30 30 23 32 48 49 43 31 34 31 31 31 33 46 69 81 91 92 97 97 100 99 100 96 93 99 93 98 100 96 99 99 100 99 98 62 94 97 98
34 33 33 33 30 31 30 24 25 24 27 33 33 34 36 31 27 36 54 60 64 73 71 83 92 94 98 96 98 100 100 100 96 99 99 97 99 93 84 98 100 100 100
35 35 32 30 31 31 32 30 26 28 32 34 35 37 38 36 38 42 47 56 58 60 64 70 76 83 86 90 100 99 99 99 99 100 100 98 98 80 98 100 100 97 97
34 33 36 33 33 35 36 36 30 29 31 34 33 35 41 42 40 43 52 54 69 68 80 91 98 96 93 94 90 99 96 98 99 98 97 94 98 100 100 100 98 96 96
38 36 33 38 37 36 37 38 36 34 30 30 32 34 44 48 47 52 56 61 64 82 89 98 100 100 100 98 99 100 99 99 98 97 97 99 99 99 100 99 96 95 95
39 38 35 33 37 37 39 40 46 48 45 38 41 50 61 59 54 56 60 61 57 86 97 100 100 100 100 99 99 98 98 96 96 99 99 98 97 96 95 94 94 95 95
38 39 38 37 35 34 39 41 46 50 50 56 68 79 80 95 84 83 70 69 64 95 100 100 100 100 99 98 96 97 98 100 99 97 96 96 96 96 95 94 94 95 94
36 36 38 37 37 37 43 50 53 57 71 85 90 100 88 99 96 78 90 98 98 100 100 100 97 97 97 97 99 100 98 96 97 96 95 95 95 95 95 95 94 95 95
45 46 39 38 43 53 55 66 70 66 74 95 100 100 90 99 99 99 99 99 98 100 99 98 96 97 96 97 97 94 95 95 95 95 95 93 91 91 92 92 90 86 83
79 70 59 46 64 80 59 70 92 98 99 100 99 99 99 99 98 98 98 96 96 97 96 96 96 95 95 94 94 94 94 93 89 85 84 84 85 84 84 85 80 65 48
100 100 95 64 96 98 99 99 98 98 100 99 99 99 98 97 96 96 96 95 95 95 96 96 95 95 94 94 95 95 90 84 86 84 84 79 55 22 9 7 7 8 8
98 100 100 100 100 99 97 99 98 98 98 97 96 96 96 95 96 95 95 95 95 95 95 95 95 94 94 94 94 91 85 73 43 15 6 6 6 7 7 7 7 7 8
97 98 97 98 96 95 96 97 96 97 98 94 96 95 96 95 95 97 95 94 95 95 95 95 93 88 82 70 42 16 7 6 6 6 6 6 6 6 6 7 8 10 13
96 97 96 96 99 94 96 97 95 96 96 95 94 96 95 96 95 96 95 92 86 81 76 61 37 14 6 6 6 6 6 6 6 6 6 6 6 7 10 12 16 20 26
96 96 96 96 96 96 95 96 96 95 94 94 94 95 95 90 79 72 66 46 23 7 6 6 6 6 6 6 6 6 6 6 6 6 8 10 13 17 21 24 31 39 49
94 95 96 96 95 95 99 97 92 91 88 85 77 61 40 21 10 6 6 6 5 6 6 6 6 7 7 7 7 7 6 7 9 12 15 18 22 25 29 36 44 54 62
93 93 93 91 86 78 67 54 39 24 14 8 6 6 6 5 5 5 6 6 6 7 7 8 8 8 8 8 7 8 10 14 17 19 22 26 29 33 40 49 58 64 68
20 15 12 10 8 8 7 7 6 6 5 5 5 6 6 6 7 7 7 8 8 9 10 10 9 9 9 10 12 15 18 20 22 25 29 34 43 50 55 57 58 64 80
9 8 7 6 6 6 6 6 6 6 6 6 7 8 8 8 9 9 10 12 12 12 11 11 11 12 13 17 19 21 22 24 28 34 41 48 52 50 50 56 78 89 93
7 6 7 7 7 7 7 7 8 8 9 9 10 10 11 11 12 13 13 14 14 14 13 14 15 18 20 21 22 24 26 31 40 45 47 46 46 48 60 84 90 91 94

GFSGL_700_rhum_060.txt.gz
RH
15 16 19 21 25 27 26 25 26 32 38 50 62 78 85 86 89 94 89 92 90 89 88 87 80 80 85 83 82 82 82 82 79 71 60 73 92 91 86 94 98 98 99
20 18 16 20 23 26 29 31 33 34 36 36 39 43 46 48 56 57 57 60 68 72 70 79 79 74 72 73 71 73 87 75 70 58 82 85 76 90 99 90 100 100 98
38 31 21 19 17 17 21 27 29 30 31 33 35 35 36 39 41 42 44 47 51 51 52 55 58 74 81 73 72 87 99 98 93 75 90 86 99 86 94 82 100 100 87
45 46 43 34 28 28 25 22 22 23 25 27 29 32 34 36 37 39 43 44 45 47 53 54 58 80 80 81 92 89 93 100 92 92 100 94 88 80 92 93 98 96 99
46 51 45 46 43 41 42 44 44 37 29 28 29 31 34 35 38 43 46 51 56 57 62 64 68 75 81 94 97 94 83 88 96 99 99 80 83 84 94 100 99 96 97
41 38 45 50 46 37 40 43 48 51 52 48 46 47 52 55 56 56 57 59 62 63 75 85 86 82 80 89 98 100 100 99 100 86 99 79 81 89 99 100 98 98 96
82 40 35 40 43 36 36 41 44 47 53 57 62 62 62 59 58 53 48 59 64 65 74 83 89 96 100 100 98 98 100 99 99 98 96 98 93 99 100 99 99 98 98
73 65 39 36 36 39 42 40 44 37 28 25 36 51 50 44 36 36 39 38 38 46 65 65 68 64 85 100 100 100 100 100 98 96 99 100 100 100 96 98 100 96 96
52 67 75 41 37 36 36 35 37 32 31 27 27 40 41 31 33 34 35 36 34 40 48 54 67 70 79 91 100 100 100 100 99 100 100 100 98 99 99 100 96 93 97
42 43 49 77 73 40 38 35 34 32 33 31 30 26 25 28 33 34 35 38 39 46 50 51 61 88 100 100 100 99 100 100 97 97 100 99 100 100 99 97 97 97 96
55 52 44 45 54 46 37 39 40 37 35 34 35 32 27 28 33 39 43 51 51 52 55 66 94 100 100 100 96 98 98 99 98 99 100 98 97 97 97 97 97 97 96
41 55 55 45 42 43 41 40 39 43 41 39 40 42 45 49 58 61 68 69 64 84 66 97 100 87 89 89 100 99 100 98 100 98 98 98 100 95 97 95 96 96 95
39 53 56 53 46 46 40 43 43 43 54 68 68 70 64 76 76 75 72 73 100 100 99 100 98 99 99 100 100 99 98 98 97 97 97 96 96 95 95 94 95 92 90
69 67 55 53 53 61 56 51 53 52 60 91 100 99 100 97 97 99 99 100 100 100 99 99 100 99 99 98 98 97 97 96 96 96 96 96 95 95 94 94 95 86 74
87 89 66 57 62 66 72 78 56 68 88 97 82 99 100 99 100 100 100 99 99 99 99 100 98 97 97 96 96 96 96 95 95 95 95 94 95 94 90 78 68 54 33
91 100 100 97 94 98 97 91 100 85 88 99 100 100 100 100 98 100 100 98 99 95 97 97 96 95 95 95 96 95 95 95 94 93 90 83 74 54 25 8 5 5 5
86 96 97 100 100 100 100 100 100 100 100 98 98 99 98 99 97 96 98 93 96 96 96 95 96 95 95 94 95 93 93 93 84 62 29 8 5 5 5 5 6 6 5
84 94 99 100 92 95 96 97 97 99 96 97 94 93 96 95 98 93 96 96 96 96 93 94 94 94 93 91 88 80 52 21 7 5 5 5 5 6 6 6 6 6 6
94 94 97 93 96 96 96 95 98 95 96 95 100 95 100 93 95 97 95 96 97 94 92 92 92 82 57 26 8 5 5 5 5 6 6 6 6 6 6 6 7 9 10
96 95 95 97 97 99 92 96 100 92 96 96 96 97 97 96 94 96 98 95 92 78 51 21 9 5 5 5 5 5 5 6 6 7 7 6 6 6 8 10 12 14 19
96 95 94 94 94 94 96 97 97 93 95 96 97 95 94 89 80 50 32 14 6 6 5 5 5 5 5 6 6 6 7 7 7 7 7 7 8 11 13 16 19 22 27
96 95 96 96 94 92 88 90 91 89 80 58 38 17 9 7 6 6 5 5 5 5 5 6 6 6 7 8 8 8 8 8 8 8 9 12 14 16 18 21 26 33 38
70 59 44 32 21 15 11 9 8 8 7 7 6 6 5 5 5 5 5 5 6 7 7 8 8 8 9 9 9 9 9 9 11 13 15 16 18 20 24 29 36 38 42
11 10 10 9 8 7 6 6 6 6 5 5 5 5 5 6 6 7 8 8 8 9 10 10 11 11 11 11 10 10 12 14 16 17 18 20 25 30 35 37 38 47 68
9 8 7 7 6 6 6 6 6 6 6 7 8 8 8 9 9 9 10 11 11 12 13 13 14 13 13 13 14 15 16 18 18 20 25 31 35 37 37 38 49 71 74
7 7 7 7 7 7 8 8 9 9 9 10 10 10 10 11 11 12 13 14 15 16 17 17 16 16 15 16 17 18 19 21 26 32 36 37 38 38 37 49 70 73 77

GFSGL_700_rhum_063.txt.gz
RH
17 13 14 18 21 22 22 24 29 42 44 44 58 72 84 89 91 91 96 96 99 99 85 77 78 78 82 91 96 94 93 89 87 80 81 88 87 82 65 92 98 97 95
28 18 16 15 18 22 26 28 26 26 27 27 30 39 43 53 58 67 69 83 88 88 80 88 79 83 84 84 85 79 83 76 81 88 92 97 100 97 87 96 100 96 92
46 36 21 19 18 16 18 25 30 32 34 34 34 34 35 37 42 46 53 54 53 52 51 53 50 62 58 57 57 70 86 86 82 96 98 100 100 100 99 95 100 99 94
49 51 47 37 25 21 21 21 22 25 29 31 32 32 33 36 36 38 39 39 40 41 44 46 46 48 52 55 55 57 82 92 89 93 98 98 96 88 90 99 95 97 87
76 66 52 55 51 49 38 28 24 24 24 24 27 28 29 31 31 32 35 36 40 42 44 48 52 54 56 60 60 67 76 92 95 97 91 100 99 95 97 97 95 84 87
46 42 54 50 48 48 53 57 55 47 40 35 38 37 31 30 31 32 35 37 39 41 46 48 51 57 61 62 68 74 76 82 87 88 96 100 98 100 100 99 99 99 99
93 60 46 75 82 50 45 47 52 55 59 59 58 57 57 56 54 47 39 44 55 60 61 61 64 65 75 84 83 86 88 90 94 95 96 96 99 99 100 99 100 100 100
69 76 74 64 54 73 59 48 42 41 46 47 53 59 62 62 61 69 76 69 76 75 74 66 69 65 66 77 91 98 98 99 99 99 98 100 99 92 98 100 100 99 99
20 34 58 71 66 57 56 54 46 51 44 41 44 51 54 48 48 47 65 78 85 84 75 63 72 80 76 71 86 85 97 100 99 97 99 100 100 91 100 100 100 99 98
22 20 23 32 47 56 55 53 44 52 57 55 44 40 43 40 33 33 46 62 61 59 67 81 74 82 75 93 96 89 90 94 98 100 100 100 100 99 98 100 98 97 97
14 20 24 24 32 42 44 51 46 50 64 66 50 47 44 44 42 39 44 56 67 79 83 77 76 78 97 96 96 97 100 100 100 100 99 100 98 100 100 97 99 97 96
9 10 12 23 28 31 44 50 54 47 50 60 60 54 51 50 61 84 92 86 99 99 89 81 93 100 100 100 100 99 100 100 99 99 100 99 97 97 97 96 96 96 95
10 8 8 10 28 37 42 56 55 60 64 60 64 68 61 71 83 94 71 96 100 100 100 91 86 98 100 100 100 99 99 97 98 98 98 96 96 95 95 96 95 95 94
26 23 33 30 26 35 49 62 61 65 73 98 99 86 85 82 99 90 98 96 97 100 100 100 100 100 100 98 98 98 99 98 95 95 96 96 96 95 95 94 94 92 89
42 40 48 52 52 61 86 84 77 79 95 100 99 100 100 87 98 99 100 98 99 99 95 99 99 96 98 96 95 96 95 96 95 94 95 96 96 96 94 88 70 38 13
53 60 63 65 61 90 100 99 100 100 100 100 100 99 98 100 98 99 97 99 100 97 97 96 97 94 95 95 100 95 94 96 97 93 95 96 91 61 24 7 4 4 4
78 76 75 77 78 85 94 96 97 99 99 100 100 99 100 96 96 96 95 96 94 91 95 95 97 98 95 96 94 96 97 93 92 87 43 9 5 4 4 4 4 5 5
85 89 90 94 98 99 94 95 96 97 96 96 95 94 96 88 96 97 96 96 92 95 97 94 95 96 96 94 93 76 36 10 5 5 4 4 5 5 5 6 6 6 6
91 94 90 91 94 96 96 96 95 95 96 97 99 95 96 97 96 95 95 98 94 94 96 94 94 91 61 26 7 5 5 4 5 5 6 6 6 6 6 7 7 7 8
90 92 94 94 94 95 96 96 96 95 96 96 96 95 94 94 95 96 98 91 89 81 59 18 7 5 5 4 4 5 5 6 6 7 7 7 7 7 7 8 8 10 12
93 94 95 95 95 94 96 96 96 96 95 95 95 94 93 84 56 23 9 6 5 5 5 5 5 5 6 6 7 7 8 8 8 8 8 8 8 8 9 10 12 14 15
94 94 92 85 73 42 26 15 10 9 8 7 7 6 6 6 6 6 5 5 6 6 6 7 7 7 8 8 9 9 9 9 9 9 9 9 9 10 12 14 16 17 20
22 14 12 11 10 9 8 7 7 6 6 6 6 6 6 6 6 6 7 7 8 8 8 8 8 9 9 10 10 10 10 10 10 10 10 10 12 14 16 18 21 24 27
11 10 9 8 8 7 7 6 6 6 6 6 7 7 8 8 8 8 8 9 9 10 10 10 11 12 12 12 12 12 12 11 11 12 14 15 16 18 21 25 27 30 44
9 8 8 8 7 7 7 7 8 8 9 9 9 10 10 10 10 10 10 10 11 11 12 13 14 14 15 15 14 14 14 14 16 16 18 19 22 26 29 31 31 46 62
9 8 8 8 9 10 10 10 11 11 12 12 12 12 13 13 13 13 12 12 13 14 15 16 17 18 18 18 17 17 17 18 19 20 23 28 31 33 34 33 38 61 61

GFSGL_700_rhum_069.txt.gz
RH
62 35 21 20 23 25 29 41 54 78 93 95 100 97 98 97 97 99 97 96 98 97 95 87 74 77 82 94 93 94 95 96 97 85 85 82 82 85 88 92 96 98 94
68 65 41 21 21 24 28 32 39 50 63 79 99 100 99 99 100 98 98 98 100 99 99 98 91 90 86 92 92 98 98 99 100 98 89 86 86 86 88 89 90 88 90
53 48 52 45 27 27 28 31 34 40 50 61 64 66 70 82 97 99 100 99 99 99 100 96 92 91 96 100 100 98 98 99 99 99 97 100 93 81 75 72 72 82 86
57 59 57 61 51 36 26 27 28 32 34 39 47 52 59 63 60 63 72 72 75 76 81 74 78 83 78 82 88 92 95 100 100 100 100 96 86 76 68 65 67 70 73
52 55 52 57 55 55 52 50 48 37 29 29 30 33 36 40 41 44 47 45 44 46 49 49 50 56 58 61 72 66 73 83 91 87 74 64 60 62 62 66 69 70 71
50 48 53 55 54 54 58 61 59 60 58 57 46 34 32 30 29 32 36 38 42 44 41 39 39 41 42 44 51 54 62 63 62 67 62 61 58 58 62 64 68 73 71
50 50 46 46 45 46 49 53 57 62 64 58 56 59 52 49 45 39 36 37 35 36 38 38 38 38 38 39 41 45 53 63 65 63 56 54 54 59 62 66 71 77 77
26 30 33 34 35 38 36 40 47 52 56 57 58 59 59 60 57 58 58 64 68 65 58 48 41 39 38 38 39 40 43 48 49 56 62 63 65 63 68 79 84 96 97
20 20 23 24 25 25 29 30 24 22 23 26 28 31 38 48 54 61 66 67 65 63 65 71 68 64 64 66 59 52 50 48 51 57 66 76 93 98 100 100 97 100 98
11 10 10 9 9 10 12 17 20 20 20 19 24 26 24 24 27 35 44 55 60 63 61 69 66 66 72 72 88 84 81 84 90 98 90 96 99 100 97 99 98 100 89
13 11 10 10 9 8 7 6 6 7 11 13 14 17 18 22 34 35 32 37 53 66 77 85 78 62 68 91 92 100 97 86 99 100 100 100 97 96 94 99 99 100 100
12 11 10 9 9 8 8 8 7 6 6 7 11 15 14 16 17 20 28 48 64 82 99 99 99 93 80 76 100 99 99 99 96 85 100 100 100 100 100 100 98 98 98
12 12 14 15 14 13 14 13 13 14 13 12 12 12 15 23 26 32 40 52 66 94 99 84 99 100 99 98 100 97 100 100 99 99 99 100 97 96 98 95 96 97 93
19 19 20 19 20 20 19 22 23 26 30 32 30 28 25 28 51 64 88 100 100 99 100 98 94 99 99 87 99 99 100 99 100 98 98 95 96 93 96 96 96 96 96
31 32 30 30 29 30 33 36 39 40 42 49 55 52 49 71 88 98 99 99 99 99 99 100 98 98 99 99 98 97 98 98 93 96 97 96 95 95 96 95 96 94 96
42 42 41 41 43 50 52 52 50 50 53 57 62 65 68 81 89 94 95 95 96 96 95 94 94 96 96 94 94 99 94 96 98 95 96 94 95 97 95 94 95 88 57
54 53 56 61 64 65 64 65 65 66 68 72 73 72 76 76 77 86 93 94 95 96 96 96 97 96 94 97 95 96 95 95 95 96 94 96 94 94 77 52 24 7 4
70 70 70 72 72 72 70 71 74 78 81 86 87 88 88 87 91 85 84 90 94 95 95 96 95 96 96 94 97 97 96 93 93 91 78 40 13 6 5 4 4 5 5
72 73 74 76 79 80 81 81 84 88 90 90 90 90 91 92 94 96 95 93 91 93 95 94 95 96 96 95 94 93 75 46 13 6 5 5 5 6 6 6 6 7 7
78 80 82 82 82 83 82 80 77 69 54 46 40 38 41 46 58 67 71 78 83 80 78 70 64 49 34 29 21 12 7 6 6 6 6 6 7 7 8 8 8 8 8
81 80 80 72 58 42 26 17 15 12 11 9 8 7 7 6 6 6 6 6 6 6 6 6 6 6 6 6 6 7 7 7 7 8 8 8 9 9 9 9 9 9 9
77 67 49 35 25 18 14 11 10 8 8 7 6 6 6 6 6 6 6 6 7 7 8 8 8 8 8 8 8 8 9 9 10 10 11 11 11 11 10 10 11 11 12
26 20 18 15 13 11 9 8 8 7 7 7 7 7 7 8 8 8 9 9 9 10 10 10 10 10 10 10 10 11 12 12 13 14 14 13 13 13 13 13 14 14 14
17 13 11 10 9 9 8 8 8 8 8 9 9 10 10 10 11 11 12 12 12 12 13 13 13 13 13 13 14 14 16 17 18 17 17 16 16 15 15 16 17 17 17
12 11 11 10 9 9 9 9 10 11 11 12 12 11 12 12 12 12 12 12 13 14 15 15 15 16 16 16 17 18 21 22 22 21 20 19 18 18 19 20 21 23 25
12 11 11 11 11 12 12 12 12 12 13 13 13 13 13 14 14 15 15 16 16 17 17 18 19 20 20 21 22 24 25 25 25 24 23 23 23 26 27 29 30 31 29

GFSGL_700_rhum_072.txt.gz
RH
46 25 18 19 23 28 36 45 48 53 67 88 94 98 100 98 98 100 100 100 100 100 100 100 100 100 100 98 90 93 90 100 96 80 75 80 90 94 89 88 90 92 91
55 45 30 18 18 23 27 35 49 58 56 64 79 71 80 96 99 96 98 99 100 99 100 99 98 96 91 92 75 78 85 89 92 93 88 92 94 91 97 97 94 93 92
50 50 51 42 21 19 20 24 29 38 51 58 61 61 66 68 71 82 94 98 99 96 97 98 97 99 97 100 100 97 96 97 92 98 96 94 94 96 98 99 86 80 75
61 63 60 57 50 38 23 22 22 24 27 30 35 42 51 63 69 71 69 71 71 70 79 82 88 94 88 100 100 98 93 93 94 100 98 96 98 99 97 85 72 71 71
61 62 60 59 59 58 53 50 47 41 31 27 27 27 29 32 34 41 49 52 55 58 59 60 67 71 71 74 89 84 87 90 90 91 92 93 94 91 76 64 60 58 60
70 66 63 62 63 63 59 60 61 65 68 67 62 63 70 50 37 36 36 38 41 48 53 57 58 62 57 57 66 72 80 85 85 88 85 89 79 72 71 65 55 54 53
49 48 46 45 50 56 59 58 55 55 59 60 63 65 61 64 65 73 71 80 76 67 54 42 38 37 37 39 41 48 55 63 75 82 81 65 58 64 76 71 70 62 53
24 19 19 20 23 29 32 32 31 34 39 50 56 60 61 62 60 57 57 62 65 60 62 63 67 65 71 78 73 60 48 46 51 62 71 74 76 68 70 68 74 85 66
14 14 15 17 18 18 18 18 17 18 20 21 26 30 33 38 35 38 43 51 60 64 67 70 75 79 83 78 84 85 85 95 89 81 73 70 70 72 63 84 92 99 98
13 12 12 12 11 10 10 10 9 8 8 7 6 6 6 8 10 12 16 25 35 49 64 66 71 77 81 88 90 99 99 100 94 100 100 98 98 97 86 100 100 100 100
16 14 13 12 11 10 9 9 9 8 10 10 10 8 7 6 6 6 6 7 12 20 34 42 40 52 64 81 100 100 100 100 100 99 91 100 100 98 100 99 99 100 99
14 13 12 11 10 9 9 8 8 7 7 6 6 7 8 9 11 10 9 8 10 12 15 33 54 63 70 89 92 82 97 100 99 100 99 100 100 99 97 99 100 100 98
16 16 17 17 17 16 15 15 14 14 12 13 12 12 13 12 10 10 14 22 26 25 28 42 76 87 100 100 96 90 100 100 100 100 100 100 95 98 98 96 96 96 96
23 24 25 26 27 27 25 24 27 30 33 33 32 32 30 28 24 18 21 31 44 56 59 61 66 97 99 97 100 100 100 100 92 97 99 90 96 98 95 94 94 98 99
31 32 34 36 40 45 47 49 48 48 48 47 46 46 49 50 48 45 43 45 50 60 72 82 87 94 96 97 97 96 96 96 98 97 92 95 97 94 96 96 94 97 98
45 45 47 52 58 63 64 64 62 61 59 59 59 62 65 64 66 68 68 68 71 74 82 80 77 80 88 92 95 96 95 95 98 95 95 96 96 95 96 96 96 91 91
66 63 64 64 65 67 69 69 68 69 71 74 77 79 79 82 83 86 89 89 88 87 86 90 94 91 88 87 92 94 94 94 95 95 96 95 95 95 90 80 48 27 16
72 71 71 73 75 76 76 76 75 74 75 77 79 80 80 81 82 84 87 89 90 92 92 88 90 95 96 95 95 96 94 94 93 94 94 94 90 65 30 9 5 5 5
78 78 80 82 84 84 83 81 78 75 71 65 60 53 42 36 31 32 36 43 52 55 56 59 61 66 70 75 75 68 55 39 29 16 10 6 6 6 6 6 6 6 6
89 90 88 85 79 68 56 41 32 24 18 14 12 10 9 8 7 6 6 5 5 5 5 5 5 5 5 6 6 6 7 7 7 7 7 7 7 7 7 7 8 8 8
89 86 79 71 56 43 32 24 18 14 11 9 8 7 6 6 6 6 6 5 5 6 6 6 7 7 7 7 8 8 8 8 8 8 8 8 9 9 9 9 9 10 10
54 41 31 26 22 19 16 13 10 8 8 7 7 7 6 6 6 6 7 7 8 8 9 9 9 9 9 9 9 9 9 9 10 10 10 11 11 11 12 12 11 11 11
26 24 21 18 14 11 10 9 8 8 8 7 7 7 8 8 9 10 10 10 10 10 11 11 12 12 12 12 12 13 13 13 13 14 14 15 15 15 15 14 13 13 13
17 14 12 11 11 10 10 9 9 8 8 8 9 10 11 11 10 10 11 11 11 11 12 12 12 13 13 14 15 16 16 16 17 18 19 20 19 19 18 17 16 16 18
13 13 13 12 12 11 10 10 10 10 11 12 12 12 13 13 13 13 14 14 14 14 14 14 15 15 16 17 18 18 19 20 21 23 24 25 24 23 22 22 22 24 26
15 15 14 13 12 12 12 13 13 14 15 15 14 14 14 15 14 14 12 12 12 13 14 15 16 19 21 22 24 24 25 26 28 29 30 30 30 30 30 30 31 31 30

GFSGL_700_rhum_075.txt.gz
RH
45 21 15 15 19 24 28 38 43 65 76 89 93 98 100 100 100 98 99 100 98 100 100 99 99 100 100 100 99 99 99 99 98 86 77 77 81 95 94 96 97 96 90
56 46 24 16 17 21 24 26 30 39 51 74 85 86 80 89 91 98 99 100 100 100 100 100 100 99 100 100 100 100 99 100 98 97 74 73 78 75 84 91 92 98 100
54 56 54 32 21 19 20 22 26 30 35 42 50 59 64 62 62 69 76 84 94 98 98 98 98 98 99 99 98 97 95 96 95 90 80 86 89 88 79 79 84 87 87
54 60 56 57 51 34 23 20 20 22 25 29 35 42 46 53 57 62 67 73 80 86 91 96 98 96 95 96 98 98 97 99 99 100 97 85 83 78 83 74 71 76 78
68 68 70 68 66 65 61 51 40 36 32 29 28 27 29 31 39 42 46 50 52 53 55 65 70 69 69 78 92 84 94 100 100 99 99 96 89 82 83 86 88 82 80
73 66 75 70 69 66 64 64 66 67 68 69 68 62 60 83 58 59 63 56 47 41 35 34 33 36 39 52 73 85 94 98 97 91 88 97 90 80 79 83 82 76 57
92 96 80 71 64 61 63 66 65 64 64 64 65 69 72 74 71 68 64 67 69 70 68 65 62 58 58 54 49 49 49 53 75 87 93 96 95 96 100 98 88 79 54
53 30 24 23 24 25 26 30 36 39 39 42 51 59 63 70 74 76 79 81 86 89 94 97 96 87 82 82 82 87 77 81 93 97 100 99 98 96 96 91 86 84 80
20 16 15 13 13 13 12 12 11 12 12 13 14 15 16 18 19 20 22 24 26 29 36 45 56 66 75 80 85 84 92 100 97 91 83 85 86 86 100 99 99 100 100
30 16 14 12 11 11 11 10 9 9 9 8 8 7 7 6 6 6 6 7 8 9 10 13 16 22 27 36 44 56 71 93 100 99 100 100 100 99 99 100 100 100 100
20 18 17 15 14 13 12 11 10 10 10 10 9 9 9 8 8 7 7 7 6 6 7 8 9 13 18 22 29 49 85 98 100 100 99 100 100 100 99 97 99 98 91
15 15 14 13 12 12 11 11 10 11 11 12 11 12 12 13 14 14 14 13 10 8 7 6 7 11 20 28 33 68 96 100 98 100 99 100 99 100 99 100 93 96 100
18 15 15 15 14 14 15 15 14 14 13 13 14 15 16 17 17 16 18 21 25 25 22 21 21 20 23 32 49 70 79 87 100 100 99 99 99 100 100 96 88 91 95
24 22 21 21 21 22 22 22 23 25 26 27 30 32 33 32 33 34 33 34 34 35 34 34 35 36 40 48 56 69 83 89 93 100 100 99 99 96 96 97 97 95 95
34 30 27 28 30 31 32 36 39 41 47 48 49 49 47 47 48 47 47 47 47 48 49 49 50 51 52 58 66 71 79 85 85 86 88 89 90 93 95 96 94 95 96
50 45 45 46 48 51 54 55 57 58 58 58 58 58 59 60 60 59 60 60 62 64 66 69 70 71 72 74 76 83 88 88 92 96 94 92 92 93 92 94 95 95 95
67 64 62 62 63 64 64 65 64 64 65 66 64 64 65 65 65 66 66 67 68 70 73 76 78 80 80 79 80 82 83 87 92 91 96 96 94 94 94 94 93 92 83
77 72 68 67 66 66 68 69 70 70 68 65 63 58 54 46 40 33 26 20 16 13 10 12 16 19 24 35 49 61 66 66 67 64 62 55 34 18 10 7 6 6 6
81 76 72 72 73 74 73 69 63 54 44 35 27 21 16 12 10 8 7 6 6 5 5 5 5 5 5 5 5 5 6 6 6 6 6 7 7 7 7 7 7 7 7
80 79 78 78 76 72 65 54 43 34 25 18 13 10 8 7 6 6 6 6 6 6 6 5 6 6 6 7 7 7 8 8 8 8 8 8 8 8 8 9 9 9 9
82 78 73 64 50 38 29 24 20 16 12 9 8 7 7 7 7 6 6 6 6 7 7 8 8 8 9 9 9 9 9 9 10 10 10 10 10 10 10 11 11 11 11
59 48 37 30 24 20 16 12 10 9 9 8 8 8 8 8 8 8 8 9 9 9 10 10 10 10 10 11 11 11 11 12 12 12 12 12 12 13 13 13 14 13 13
27 23 18 14 12 11 11 10 10 10 9 9 9 9 10 10 10 10 10 10 10 10 10 11 11 11 11 11 11 12 12 13 14 14 15 16 17 18 18 18 18 17 17
14 13 12 12 12 12 12 12 11 11 10 11 12 12 12 13 13 13 13 13 13 13 13 12 12 12 12 12 13 14 15 16 17 18 19 20 22 23 23 23 23 22 21
14 14 15 15 15 14 13 13 12 12 13 14 14 15 15 15 14 14 14 14 13 11 11 11 11 11 12 12 13 15 17 18 20 21 23 24 26 27 28 28 28 28 29
17 17 16 16 15 15 15 15 15 16 17 17 17 16 16 15 15 15 14 12 12 12 12 12 13 14 15 16 18 20 22 24 25 27 29 30 32 33 33 33 35 36 36

GFSGL_700_rhum_078.txt.gz
RH
57 47 19 16 20 26 30 36 44 66 72 71 81 97 100 100 99 99 100 100 100 100 100 100 100 100 100 99 100 98 96 98 95 88 94 96 98 87 87 87 90 92 88
56 51 27 16 18 22 27 31 33 35 58 82 86 94 99 97 99 99 99 99 99 98 99 99 98 100 98 99 99 99 100 100 100 97 100 99 96 99 93 85 90 90 93
59 52 44 24 17 19 23 27 32 35 34 44 56 68 70 70 84 96 98 96 96 99 98 98 98 99 98 99 99 100 100 100 100 99 93 99 98 89 86 78 73 74 77
58 51 54 49 33 20 20 22 25 30 35 42 49 58 71 78 74 76 78 77 75 82 89 87 92 94 93 93 94 93 96 96 90 92 84 79 79 79 85 83 81 84 86
65 63 67 63 61 54 37 25 24 25 28 33 38 52 73 60 41 50 60 64 70 73 79 85 91 94 93 91 87 83 88 91 90 88 92 87 86 89 88 92 96 90 86
70 77 78 77 73 72 73 73 63 55 46 43 37 38 36 34 34 40 48 52 58 59 63 72 83 92 93 98 100 100 100 99 97 98 100 100 98 94 94 97 98 100 88
82 82 79 81 85 79 80 81 78 76 75 75 75 77 78 72 72 77 80 87 99 100 100 99 100 100 100 96 96 99 100 100 100 100 100 100 100 100 97 96 80 73 85
90 87 82 84 94 84 74 73 74 73 73 73 71 68 68 71 70 73 79 90 98 96 95 97 97 94 95 98 99 100 100 99 99 100 100 100 98 99 100 100 100 99 98
100 95 100 99 81 28 24 22 21 21 21 21 21 20 19 18 17 17 19 22 23 24 26 26 26 26 28 32 43 59 77 88 89 94 96 98 100 100 100 100 100 100 100
50 61 86 38 17 15 14 12 11 10 10 9 10 10 9 9 8 8 9 10 10 10 10 10 10 9 9 9 10 13 17 28 45 59 90 99 98 97 98 100 100 100 100
70 78 63 38 24 20 15 14 13 12 11 10 10 11 10 9 8 8 8 8 9 9 9 9 11 11 11 11 13 16 21 24 24 29 58 84 99 100 100 99 99 99 100
37 33 30 24 18 15 15 18 16 14 14 13 14 14 14 14 14 15 16 16 16 16 15 14 15 15 14 14 18 22 26 40 62 70 68 69 81 94 99 97 91 95 99
38 27 20 19 17 18 21 23 20 20 19 20 22 22 22 23 24 24 26 27 28 29 30 30 32 32 32 31 31 31 31 32 35 41 52 69 83 94 98 97 95 92 93
32 31 32 32 31 32 30 26 25 24 26 28 28 29 33 35 36 35 36 38 40 40 41 40 39 39 40 40 40 42 46 52 55 55 55 56 58 65 72 76 78 80 82
35 36 38 38 38 38 38 38 37 36 34 36 39 41 44 44 44 46 47 49 48 47 48 47 45 45 46 48 49 52 56 60 61 64 67 70 71 72 72 75 78 85 89
46 46 49 50 51 50 50 50 50 50 52 52 52 52 52 54 54 53 52 52 52 51 52 52 53 52 52 55 57 59 60 62 65 69 72 76 81 83 84 86 87 88 88
66 65 66 67 66 64 62 61 62 62 62 60 58 57 56 55 53 51 50 47 43 36 30 26 19 14 11 8 7 7 9 16 30 43 56 66 67 67 64 55 45 30 22
80 79 77 75 72 71 69 68 67 66 64 61 57 54 50 47 42 35 26 18 12 10 8 6 5 5 4 4 4 4 4 4 4 5 5 5 6 6 6 6 6 6 6
82 80 78 76 74 73 71 68 65 62 59 54 50 43 34 26 18 11 8 6 5 5 5 5 5 5 5 5 5 5 5 6 6 6 7 7 7 7 7 7 8 8 8
81 78 76 75 74 70 66 62 56 48 40 30 23 16 11 8 6 6 6 6 5 5 5 6 6 6 6 6 7 7 7 8 8 8 8 8 9 9 9 10 10 10 10
83 80 75 69 62 54 47 37 27 17 12 9 8 7 7 6 6 6 6 6 6 7 7 7 8 8 8 8 8 9 9 9 10 10 10 11 11 11 12 12 12 13 13
70 61 49 36 27 19 14 10 8 8 8 8 8 8 8 8 8 8 8 8 8 9 9 9 9 9 10 10 10 10 10 10 11 11 11 12 13 14 14 15 16 16 16
32 26 19 14 10 9 9 8 8 8 9 10 10 10 9 9 9 9 10 10 11 11 11 11 11 12 12 11 11 11 11 11 12 13 14 15 16 17 18 19 20 21 21
14 12 10 10 10 10 10 11 11 12 12 12 11 11 11 11 12 12 13 13 12 12 12 13 12 11 10 11 11 11 11 12 13 14 16 17 19 21 22 24 25 26 26
12 12 12 12 13 13 14 14 14 14 14 13 13 14 14 15 15 15 14 14 14 14 13 12 11 11 12 12 13 14 16 17 18 20 20 21 22 23 25 27 29 30 30
13 14 14 15 15 16 16 16 16 16 16 16 17 18 18 17 16 16 15 15 15 15 14 14 14 15 16 18 19 20 21 21 22 22 23 24 25 27 29 31 32 32 33

GFSGL_700_rhum_081.txt.gz
RH
57 53 56 29 14 17 20 21 34 50 69 78 93 88 100 99 100 100 100 100 100 100 100 100 100 100 100 100 100 99 99 98 98 96 99 96 97 94 86 95 98 90 84
58 53 56 36 16 16 22 24 26 37 64 76 87 90 93 99 99 98 100 98 100 100 99 100 100 99 100 100 100 99 100 99 99 98 99 100 99 100 96 100 100 96 99
53 53 56 40 21 16 21 26 28 27 34 65 75 90 98 100 100 98 100 100 99 100 100 99 100 100 99 100 100 99 100 100 100 99 96 100 99 93 92 93 89 99 91
56 51 56 47 35 22 18 23 29 33 33 42 67 76 86 85 83 87 94 100 100 98 97 100 100 100 100 99 99 100 98 97 98 98 88 88 97 88 97 88 89 89 92
54 57 57 53 51 36 23 23 26 27 32 38 51 53 54 61 60 62 69 79 87 95 95 94 90 91 94 96 92 92 98 98 94 98 98 94 86 87 86 88 90 86 85
83 63 63 64 62 66 61 42 30 30 33 42 52 46 49 52 59 67 74 84 98 98 90 87 90 96 94 93 92 90 91 96 95 94 93 93 90 84 82 85 86 86 85
100 94 95 91 84 83 87 83 79 71 54 45 44 45 44 45 50 54 59 72 68 67 70 79 92 94 93 95 99 95 94 93 94 94 93 99 100 100 99 99 100 100 100
100 100 100 100 99 95 97 98 99 100 99 100 100 99 95 91 94 98 99 100 100 100 100 100 100 100 100 100 100 99 99 99 100 99 100 100 100 100 100 100 100 100 100
100 100 100 100 98 91 82 97 97 100 100 97 92 96 94 85 70 65 66 71 68 58 55 55 50 43 38 34 32 29 30 31 35 39 51 55 70 81 95 97 100 99 100
100 98 97 100 100 98 100 100 69 33 26 24 22 20 18 16 14 13 13 12 13 14 15 14 14 13 13 12 12 12 11 12 13 14 15 15 18 21 28 67 94 99 99
78 87 97 99 95 93 96 50 18 17 15 14 15 15 15 15 14 13 13 13 13 13 14 16 16 15 16 16 16 16 16 16 16 17 20 25 28 33 37 39 45 52 57
94 95 94 94 95 90 74 52 38 21 16 16 18 18 16 16 17 16 16 16 18 19 18 18 18 19 21 22 22 23 25 27 27 26 26 27 29 33 37 40 47 52 58
67 69 89 84 64 65 74 54 43 41 35 28 21 19 21 24 23 22 22 23 23 25 26 25 27 30 32 34 36 36 37 37 38 38 38 40 40 41 42 43 45 48 52
40 40 38 38 38 38 38 37 37 34 32 32 32 34 34 35 37 36 37 40 39 39 40 41 41 40 40 40 40 40 41 41 42 44 47 50 52 52 54 55 57 59 61
42 41 40 39 40 40 40 40 39 42 45 47 48 47 48 48 48 48 49 51 50 50 48 46 45 43 43 41 41 41 41 40 40 39 38 40 41 46 52 58 66 70 72
44 45 45 45 47 52 52 51 51 51 53 54 54 54 54 54 54 53 53 53 52 50 46 43 41 36 33 28 23 17 13 10 7 5 4 4 4 6 8 13 21 30 40
55 58 58 58 60 62 63 63 61 60 61 61 60 60 59 58 56 53 50 46 43 38 33 29 25 21 16 12 9 6 4 4 3 4 4 4 4 4 4 4 5 5 5
70 70 72 72 72 71 70 68 67 66 65 63 60 57 55 52 50 47 43 38 29 21 15 10 6 5 4 4 4 4 4 4 4 4 4 5 5 5 6 6 6 6 6
80 79 79 78 76 74 72 70 67 64 62 59 56 53 48 42 35 27 18 11 7 5 5 5 5 5 5 4 4 4 5 5 5 6 6 6 6 6 7 7 7 8 8
85 84 82 80 77 74 71 67 62 57 51 44 36 26 17 9 7 6 6 5 5 5 5 5 5 5 5 6 6 6 6 7 7 7 7 7 8 8 8 8 8 9 9
86 83 80 76 69 63 57 49 40 29 19 11 8 7 7 6 6 6 6 6 6 6 6 6 6 7 7 7 8 8 8 8 8 8 8 8 8 8 9 9 10 10 11
77 72 64 54 43 34 25 17 12 9 8 7 7 7 7 7 7 8 8 8 8 8 8 8 8 9 9 9 10 10 10 10 9 9 8 9 9 9 10 10 11 12 14
48 41 35 27 18 12 10 8 8 8 8 8 8 8 9 9 9 10 10 10 10 10 10 11 11 11 11 11 11 10 10 9 9 9 9 9 10 10 11 13 15 17 18
26 15 12 10 9 8 8 8 8 9 9 9 10 11 12 12 12 12 12 12 12 12 13 12 12 12 12 12 11 10 10 10 11 11 12 13 15 16 18 19 20 22 24
10 9 9 9 9 9 10 10 10 11 12 13 13 14 14 14 14 14 14 15 15 14 14 14 14 14 13 13 13 13 14 14 15 16 17 18 20 20 21 22 23 25 26
9 9 9 9 9 10 11 12 13 14 14 15 16 16 16 16 16 17 17 17 16 16 16 16 16 16 16 16 17 18 18 19 20 20 21 21 22 22 24 25 27 28 28

GFSGL_700_rhum_087.txt.gz
RH
50 38 34 40 52 60 60 18 18 24 40 64 76 92 96 100 100 100 100 100 100 100 100 100 100 99 98 97 95 83 80 85 93 100 100 100 100 99 98 99 98 100 99
70 46 40 40 53 58 55 18 17 24 33 48 70 82 100 99 99 98 100 100 100 100 100 100 100 99 99 98 100 99 100 100 98 99 100 99 99 100 99 99 100 99 98
97 92 48 51 61 62 49 22 18 22 27 31 53 88 99 100 100 100 100 100 100 100 100 100 100 100 99 100 100 100 100 100 100 100 99 99 95 99 100 98 85 92 99
97 72 60 57 57 58 52 31 20 18 22 26 34 59 88 90 98 100 100 100 100 100 100 100 100 100 100 100 100 100 100 100 99 99 100 97 99 98 96 98 96 100 100
99 80 90 64 61 68 55 33 22 20 23 28 31 46 63 89 100 100 100 99 100 100 100 98 96 82 84 100 96 94 94 94 97 88 86 80 95 99 99 99 99 98 91
100 100 99 79 73 78 63 35 25 22 24 29 32 35 49 70 90 96 100 100 99 92 99 74 99 98 94 88 90 92 100 100 91 87 84 80 82 96 99 90 98 93 98
99 99 100 100 99 96 74 46 35 29 26 27 29 33 44 59 73 82 91 92 82 97 84 100 93 82 100 96 92 94 92 89 90 89 98 98 100 100 100 100 100 100 100
99 100 100 94 100 100 88 57 64 41 37 38 35 29 35 54 86 94 90 88 96 98 100 98 92 99 99 99 83 90 92 98 100 100 100 100 100 87 96 93 90 74 59
100 100 100 99 99 99 99 80 63 63 70 81 76 70 63 43 72 96 96 91 87 92 95 95 97 95 97 96 81 78 100 87 95 99 98 90 60 36 26 24 20 17 15
100 100 100 100 100 100 100 100 99 100 100 100 100 100 100 93 100 99 100 100 100 99 99 97 98 100 96 76 56 42 26 22 19 18 17 17 17 16 17 17 19 21 22
98 97 98 99 98 99 99 100 100 100 100 100 100 100 100 99 100 99 99 98 89 77 50 38 27 21 20 18 19 19 18 17 18 19 20 21 22 23 25 27 28 30 31
95 97 96 96 98 98 94 99 98 98 97 98 99 98 96 97 97 43 30 29 27 21 20 20 20 19 20 22 22 24 26 26 26 28 30 31 33 34 35 35 35 35 36
97 97 96 97 98 95 97 96 97 94 96 92 94 75 72 62 48 38 31 36 36 33 30 29 30 31 31 31 31 31 34 36 38 39 38 38 38 36 35 34 30 26 22
95 94 94 96 94 94 96 96 96 96 97 95 97 94 90 91 86 82 71 60 60 55 46 44 34 31 38 39 41 40 40 40 39 37 35 32 30 27 24 21 17 13 7
92 91 91 92 95 94 85 78 81 84 91 95 90 89 88 85 81 79 78 75 66 50 43 42 42 46 46 44 41 40 38 35 33 30 26 20 15 10 6 4 4 3 3
93 91 90 89 94 86 85 83 81 79 78 74 72 70 66 62 57 55 54 54 54 54 52 49 47 45 42 39 37 33 27 19 12 7 5 4 4 4 4 4 4 4 4
79 78 80 81 78 81 80 79 77 72 69 69 66 65 64 62 59 58 57 55 52 50 47 45 41 35 29 20 10 6 4 4 4 4 4 4 4 4 4 4 4 4 4
90 92 93 92 89 85 82 80 77 76 74 72 70 68 65 62 59 56 54 51 47 41 34 23 12 6 5 5 5 5 5 5 5 5 5 5 5 5 5 5 5 5 6
96 96 95 92 89 86 85 83 80 77 73 70 67 64 61 56 51 45 38 27 16 8 6 6 6 6 6 6 6 6 6 5 5 6 6 6 6 6 6 6 6 7 7
99 97 95 93 90 86 83 80 76 72 67 62 58 53 45 35 24 12 8 6 6 7 7 7 7 7 7 6 6 6 6 6 6 7 7 7 7 8 8 8 8 7 7
95 94 93 89 84 80 75 70 63 56 49 40 32 21 12 8 7 7 7 7 7 7 7 8 8 7 7 7 8 8 8 8 9 9 9 9 9 10 9 9 8 9 9
91 88 80 70 62 55 47 42 36 27 18 11 8 8 7 7 8 8 8 8 8 8 8 8 9 9 9 9 10 10 10 11 11 11 11 11 11 11 10 10 10 11 11
79 74 64 62 54 40 29 16 11 10 9 8 8 8 8 8 9 9 9 9 10 10 10 10 11 11 11 12 13 12 13 13 13 13 12 12 12 12 12 13 14 16 16
71 54 36 26 15 12 11 10 9 9 9 9 9 9 9 9 10 11 10 10 11 12 11 13 13 13 13 14 15 14 14 14 14 14 14 14 15 16 17 18 18 19 19
14 13 12 11 11 10 10 10 10 10 10 10 10 10 10 10 11 12 13 13 12 13 14 14 15 15 16 16 16 15 16 16 16 17 17 18 19 19 20 21 22 22 22
12 12 12 12 12 12 12 12 12 13 12 12 13 13 13 13 14 14 15 16 16 16 17 17 18 18 18 17 17 18 19 19 20 20 20 21 22 22 24 25 26 27 28

GFSGL_700_rhum_093.txt.gz
RH
70 90 89 74 67 62 43 41 47 51 49 29 20 24 34 61 91 87 100 100 100 100 100 100 98 100 100 100 100 99 100 98 95 100 95 94 91 93 96 96 90 100 99
94 95 98 87 71 66 45 45 48 57 53 25 20 23 33 60 95 96 100 100 100 99 100 98 99 100 100 99 100 100 100 98 98 98 99 100 94 90 86 100 100 100 100
89 98 100 98 86 68 46 46 45 55 55 24 20 24 30 51 98 100 99 100 100 99 99 100 99 100 100 100 100 100 100 100 100 100 99 99 98 98 97 96 100 99 98
97 94 96 98 97 69 46 45 42 51 59 29 22 29 33 44 91 100 100 99 100 100 100 100 100 100 100 100 100 100 100 100 100 100 100 100 100 99 99 100 100 97 98
100 96 99 99 99 80 61 55 58 58 64 32 23 27 33 39 80 99 100 100 99 100 100 99 100 99 100 100 100 100 100 100 100 100 100 100 100 99 100 100 99 97 99
100 91 99 100 100 92 73 66 76 73 70 51 27 28 31 33 77 94 98 100 100 99 100 100 100 100 100 100 100 100 100 100 99 100 100 100 98 96 95 100 98 100 100
99 98 99 88 98 96 98 84 76 72 69 74 52 30 33 37 66 83 99 100 99 99 100 100 100 100 100 100 100 100 100 96 100 99 94 90 99 93 92 91 89 96 95
99 100 91 100 100 94 97 91 76 73 83 79 76 40 41 43 66 98 96 99 100 100 82 99 100 100 100 100 100 98 97 99 98 86 90 93 98 99 96 98 100 98 96
99 100 100 100 100 100 100 95 93 95 97 92 93 69 44 65 76 84 100 98 100 100 100 100 100 97 98 100 100 100 100 96 92 93 100 98 97 100 98 100 99 93 98
99 98 97 100 100 100 100 100 100 96 97 98 100 99 100 66 83 98 97 100 100 100 100 100 100 100 100 99 98 95 99 99 100 100 100 100 99 98 82 46 30 36 30
94 97 97 99 98 99 100 100 100 100 99 98 100 100 100 100 100 100 100 100 99 98 99 100 100 98 90 96 100 99 100 100 100 100 99 86 44 34 28 26 27 28 29
94 95 97 96 96 96 98 98 99 99 99 99 100 99 99 100 99 100 100 100 100 100 100 100 100 100 99 99 100 100 99 97 69 51 37 38 34 32 31 31 33 34 33
87 90 95 95 95 95 97 97 98 98 99 96 97 98 98 98 98 98 98 98 98 98 98 98 98 99 99 99 95 94 67 48 44 38 36 40 38 37 36 34 32 32 32
93 92 94 96 96 96 95 94 95 96 97 96 96 99 97 97 97 96 96 96 96 96 96 95 95 95 93 84 65 60 68 78 76 64 50 43 38 35 33 33 32 30 24
94 92 94 95 96 97 97 97 96 97 97 96 96 97 96 96 96 96 96 96 96 96 97 97 96 97 97 97 96 97 95 92 92 77 56 42 37 35 32 26 16 8 6
95 95 95 96 96 97 95 96 96 97 96 96 97 97 97 96 96 96 96 96 95 95 96 95 95 94 93 93 89 78 55 46 42 39 35 28 18 10 7 7 7 7 7
93 91 91 93 94 95 94 92 93 94 95 96 96 95 95 95 95 96 95 95 95 94 92 92 77 61 51 47 45 42 39 33 22 14 8 6 7 7 8 8 8 9 8
93 93 93 95 95 94 94 95 94 95 95 95 95 92 86 80 77 72 67 62 57 54 54 49 45 41 37 31 23 13 8 7 7 7 8 8 9 9 9 9 9 8 8
93 94 96 96 96 96 96 96 95 95 94 92 89 82 74 68 64 60 58 53 49 45 39 32 23 15 10 8 7 7 8 8 8 9 9 9 10 9 8 8 7 6 6
90 91 92 95 97 97 96 95 94 91 86 80 73 66 61 56 50 47 42 36 29 22 14 10 8 7 7 7 8 8 8 8 9 9 9 9 8 8 7 6 6 7 7
92 93 94 94 95 96 95 92 86 79 72 63 55 51 45 39 34 26 19 14 10 8 8 8 8 8 8 8 8 8 9 9 9 8 8 7 7 7 8 8 8 8 9
88 89 91 92 92 87 82 78 67 55 50 46 39 33 27 21 16 12 10 9 8 8 8 8 8 8 8 8 8 8 9 8 8 8 8 8 9 9 9 10 10 11 11
85 88 89 90 91 91 89 85 80 74 59 44 24 16 14 12 11 10 10 9 9 9 9 9 9 9 9 9 9 9 9 9 9 10 10 11 11 12 12 12 12 12 12
34 39 43 43 42 41 40 37 32 28 24 20 14 12 10 10 10 10 10 10 10 10 10 10 10 10 10 11 11 11 11 11 12 13 13 14 14 14 14 14 13 14 15
12 12 12 12 12 12 12 12 12 12 12 12 12 12 11 11 11 11 11 11 12 12 12 12 12 13 13 13 13 13 14 15 15 16 16 16 15 15 15 16 16 17 18
13 13 14 14 14 14 14 14 14 15 15 15 15 15 15 15 15 15 14 14 14 15 16 16 16 16 16 16 17 17 17 17 17 17 17 17 17 18 19 20 21 21 21

GFSGL_700_rhum_096.txt.gz
RH
67 72 71 65 68 83 92 75 64 53 49 55 55 56 22 21 31 63 84 90 89 93 99 98 98 98 100 99 100 100 100 100 100 100 80 80 66 69 72 70 70 92 92
70 70 68 79 83 72 93 87 69 51 48 60 58 52 20 21 32 61 53 84 91 94 100 99 100 100 99 100 100 100 100 100 92 98 95 100 95 87 97 99 100 99 94
80 70 73 68 86 82 91 82 70 58 62 63 58 45 21 22 28 32 42 97 95 100 100 99 99 100 99 100 99 100 100 100 99 100 100 99 97 92 98 99 96 99 100
97 96 95 99 100 99 99 87 79 61 62 69 62 35 23 25 25 33 52 81 100 98 99 100 98 100 100 100 100 100 100 100 99 100 99 99 100 100 100 99 99 93 91
92 72 98 99 99 100 98 92 73 64 72 72 64 32 25 25 27 29 51 98 95 99 100 100 100 100 100 100 100 100 100 100 100 100 100 100 100 100 100 100 99 100 100
100 87 94 100 100 99 98 99 76 80 74 72 61 46 27 27 27 27 52 98 100 100 99 100 100 99 100 99 100 100 99 100 100 100 100 99 100 100 100 99 100 100 99
99 100 98 100 99 100 93 100 99 93 91 76 72 66 47 30 31 34 46 83 98 100 100 99 100 99 100 100 100 100 100 100 99 100 100 100 100 100 97 99 98 100 100
100 100 97 99 98 100 100 95 100 99 91 83 79 70 70 64 36 38 73 96 82 96 98 100 100 100 100 100 100 99 100 99 100 100 99 99 98 99 99 100 100 100 99
100 99 100 100 100 100 98 100 100 100 100 98 95 84 77 80 66 40 81 100 100 100 100 100 95 100 100 99 100 100 99 100 100 99 100 100 86 99 98 100 100 99 99
98 99 99 97 99 100 99 100 100 100 100 100 100 96 90 78 82 67 66 90 99 100 100 99 98 100 100 100 100 100 99 99 100 98 99 96 98 100 100 99 100 99 99
96 97 97 100 99 95 99 99 99 100 100 100 100 98 99 95 99 98 94 93 99 99 100 99 99 99 100 100 100 100 100 100 100 98 99 100 99 100 99 99 99 91 46
95 97 96 93 96 98 96 97 100 99 98 99 100 100 100 100 100 100 100 100 98 100 98 98 99 99 100 100 99 98 100 100 100 100 100 100 100 98 88 50 39 34 32
88 92 94 93 92 91 88 92 93 95 98 97 98 97 98 98 98 98 99 99 99 99 99 99 99 99 99 100 100 99 100 100 100 99 98 96 83 57 43 41 40 38 37
92 94 94 95 96 97 96 96 92 92 94 96 97 97 98 97 97 98 98 96 97 96 96 97 98 97 97 97 98 97 97 96 96 94 93 81 59 53 52 57 62 61 48
96 96 97 95 93 92 93 92 91 93 94 96 97 99 98 97 96 96 98 96 96 97 97 97 97 97 95 96 96 96 96 96 97 97 96 95 94 94 93 74 48 31 18
98 98 97 95 94 92 92 91 93 94 94 94 97 97 95 95 96 93 94 94 95 95 95 96 96 96 96 96 96 96 96 96 95 95 94 83 61 43 31 18 12 10 9
88 90 92 91 92 92 92 91 92 94 95 95 95 95 94 95 95 95 95 94 95 95 95 95 95 95 95 95 95 95 95 94 91 83 76 62 36 15 9 8 8 9 9
86 88 90 89 90 90 93 94 94 94 95 95 93 93 94 94 92 90 88 88 88 84 86 85 88 86 80 72 59 46 34 27 19 12 8 8 8 8 8 9 9 10 10
84 86 89 91 92 90 90 90 89 89 92 92 92 92 91 92 93 94 95 93 88 82 77 66 54 42 33 26 18 13 9 8 7 8 8 8 9 9 9 9 9 9 8
79 81 84 86 89 91 93 93 92 91 89 88 86 84 86 86 83 85 81 79 76 61 47 35 25 17 12 9 8 8 8 8 8 8 9 9 9 9 9 8 8 7 6
73 76 78 82 85 88 92 93 93 92 89 84 79 73 67 62 55 49 40 34 28 23 18 13 10 8 8 8 8 8 8 8 8 9 9 9 8 8 7 7 7 7 7
68 75 79 81 84 86 87 86 81 78 75 71 67 62 58 48 37 28 22 18 14 12 10 9 9 9 9 9 8 9 9 9 9 9 9 8 8 8 8 8 8 9 10
15 20 27 41 55 67 77 83 87 91 90 91 90 83 65 48 36 25 17 12 12 11 11 10 10 10 10 10 10 10 10 9 9 9 9 9 9 10 10 11 12 12 12
10 11 11 12 12 12 12 13 14 17 18 19 18 17 17 16 16 14 13 12 11 11 11 11 11 11 11 11 11 11 11 11 11 11 12 12 13 14 14 14 14 14 13
11 12 12 12 13 13 14 14 14 14 14 13 13 13 13 13 13 13 13 13 13 13 14 14 13 14 13 13 13 14 14 14 14 15 15 15 16 16 16 15 14 14 14
14 14 13 12 12 13 15 16 17 17 17 17 17 17 16 16 16 16 16 16 16 17 17 17 17 17 17 17 17 17 18 18 18 18 18 17 17 16 16 16 16 17 18

GFSGL_700_rhum_099.txt.gz
RH
56 59 63 60 61 55 49 52 54 65 81 95 93 75 64 60 58 25 23 39 54 68 85 91 95 95 99 96 98 97 98 100 100 100 100 100 97 87 42 45 41 36 36
72 70 76 69 90 74 67 62 51 61 68 99 90 74 66 64 50 21 30 41 57 67 91 97 97 96 100 98 96 100 99 99 100 100 100 99 85 72 60 61 52 47 48
86 88 84 76 76 95 95 94 86 76 71 92 87 79 71 63 39 24 29 36 44 74 100 100 100 99 100 99 97 99 100 100 100 100 100 99 96 97 82 81 76 73 75
83 87 97 92 94 92 94 90 85 82 72 93 77 76 69 58 25 24 28 33 37 84 96 98 99 100 99 100 99 100 100 100 100 100 99 100 98 95 84 95 87 98 97
98 96 88 83 84 94 93 96 99 90 82 87 87 81 70 45 24 28 32 33 53 90 97 99 100 98 99 100 100 100 100 99 99 99 100 100 98 98 97 92 92 91 99
100 100 100 98 100 100 100 100 100 100 99 97 93 81 66 32 32 32 30 35 55 96 99 99 99 100 99 100 100 100 100 100 100 100 100 100 100 99 100 100 100 100 99
98 99 100 100 99 99 100 100 98 100 100 100 96 78 61 35 33 36 34 35 61 96 97 92 98 99 99 100 99 100 100 100 100 100 100 100 100 99 100 99 99 99 99
100 99 98 100 97 99 100 100 99 100 100 100 98 76 66 60 53 43 36 33 58 81 100 84 97 97 99 99 99 100 100 100 99 99 99 100 99 99 99 99 99 99 99
99 100 100 99 100 99 99 99 99 100 100 100 99 96 90 89 81 69 57 50 50 80 84 98 96 99 91 99 100 99 99 99 99 99 100 100 100 100 100 99 98 100 99
98 98 98 99 99 99 100 99 99 99 100 99 100 100 98 98 92 95 83 66 69 87 87 99 100 99 99 94 100 99 100 100 100 99 99 99 100 100 100 98 100 100 94
92 92 93 95 99 99 96 97 99 99 99 100 100 100 99 98 99 99 89 89 88 78 95 95 95 98 100 99 100 100 99 100 100 100 100 100 100 100 100 100 100 100 99
88 92 91 88 87 91 95 98 96 97 98 98 98 99 99 99 99 99 100 100 97 93 99 98 99 98 98 100 100 100 100 99 100 100 99 100 100 99 100 100 99 99 100
95 91 89 87 87 86 89 90 94 97 98 97 97 96 98 98 98 99 100 100 100 100 100 99 99 100 99 94 99 100 100 100 93 98 99 100 100 99 99 99 98 97 95
94 94 91 91 90 91 93 92 91 90 92 96 96 97 97 97 97 98 98 97 97 97 98 98 99 99 99 100 100 99 99 99 100 99 99 98 98 98 97 96 93 76 58
89 90 91 94 93 93 92 92 92 90 88 89 94 95 98 97 96 94 94 95 96 97 96 97 97 96 99 96 95 97 97 97 96 96 96 95 96 96 96 96 96 96 96
81 82 83 85 87 90 94 93 91 94 94 93 94 93 90 91 94 95 94 94 94 96 96 96 96 96 96 98 94 95 95 96 96 96 96 96 96 96 95 95 94 87 69
76 76 78 80 79 79 82 86 89 91 93 92 92 91 92 92 90 90 90 90 92 93 95 96 97 96 97 98 97 96 95 95 95 95 95 95 95 95 95 95 94 79 35
72 73 72 74 76 77 79 82 85 87 90 94 93 92 93 92 91 92 93 92 90 91 92 91 93 94 95 95 94 93 91 92 92 85 73 60 46 34 24 15 10 9 9
62 67 71 74 75 76 77 78 81 83 84 84 85 89 91 93 93 93 93 94 94 95 95 95 94 90 85 81 79 79 76 65 61 55 41 23 12 8 8 9 9 9 9
38 44 53 63 70 75 78 80 83 84 85 86 86 85 84 79 76 77 84 92 95 96 95 94 82 63 55 35 22 16 10 8 8 8 8 8 8 9 9 9 9 9 9
18 25 37 48 55 64 73 79 82 83 83 83 84 84 82 80 74 63 53 47 40 34 29 23 19 17 13 10 9 9 8 8 8 8 8 8 9 9 9 9 8 8 7
8 8 8 9 9 11 20 38 60 76 86 90 90 85 80 78 75 68 59 48 34 23 18 15 13 11 10 10 10 9 9 9 9 9 9 9 9 9 8 8 7 7 7
8 8 9 9 10 10 10 11 11 12 15 22 31 37 44 57 73 82 84 77 62 38 26 19 14 12 11 11 10 10 10 10 10 10 10 9 9 9 9 9 9 10 10
11 12 12 13 12 12 12 12 12 13 14 14 14 14 14 14 15 15 16 17 18 21 22 21 17 14 12 11 11 11 11 11 11 11 11 11 11 11 12 12 12 13 13
16 17 18 18 17 16 15 13 13 13 14 16 16 17 17 16 16 16 15 15 15 15 15 14 14 14 14 14 14 14 14 14 14 14 14 14 14 15 15 15 16 16 15
20 20 19 19 18 18 18 18 18 18 18 18 19 19 19 20 20 20 20 20 20 20 19 19 19 19 18 18 18 18 18 18 18 18 18 18 18 18 18 18 17 17 17

GFSGL_700_rhum_102.txt.gz
RH
53 57 51 48 46 48 53 55 55 48 41 45 85 87 97 99 97 95 68 71 53 40 79 83 80 83 99 93 93 91 88 92 89 93 94 99 100 100 100 99 78 34 20
69 68 67 61 54 62 63 64 58 58 53 54 75 91 97 78 93 79 75 69 32 42 64 89 100 99 95 89 93 98 90 95 96 95 96 100 100 100 99 99 94 58 50
81 86 82 81 78 73 72 85 72 72 66 76 78 79 77 99 86 79 72 49 35 48 85 100 80 97 92 94 86 100 95 99 99 98 99 100 100 99 98 98 93 78 58
100 98 97 92 93 99 89 100 99 97 82 79 77 74 75 99 89 80 73 44 62 45 74 72 52 74 83 97 99 99 99 100 100 99 100 100 100 100 99 99 86 68 49
99 99 98 100 93 100 99 99 100 98 94 91 83 76 79 83 81 81 51 45 50 37 41 64 79 97 99 99 100 99 100 99 100 100 100 99 100 98 97 98 97 76 74
99 98 97 98 100 99 100 95 94 96 95 93 93 95 70 74 83 66 43 39 36 35 51 72 88 100 98 100 100 100 100 100 100 100 100 99 98 100 96 96 100 92 99
99 95 100 99 100 100 92 99 100 99 97 94 99 100 83 87 83 59 42 40 36 32 48 78 98 100 100 100 100 100 100 100 100 100 100 100 99 98 99 99 99 99 99
100 100 98 99 99 99 100 99 99 100 100 100 99 96 100 99 77 49 45 42 35 32 35 88 95 95 93 100 100 100 100 100 99 100 99 100 100 99 100 100 100 99 99
98 98 99 100 99 96 98 98 99 100 100 100 100 100 100 99 76 48 51 48 42 37 53 71 98 100 98 97 100 100 100 100 100 100 100 99 99 99 99 99 99 99 100
95 96 97 97 98 100 100 100 99 99 100 100 99 100 100 100 89 80 66 81 78 78 84 84 82 99 97 98 88 94 99 99 100 99 100 99 100 99 99 99 99 99 99
85 87 89 89 94 98 98 98 99 99 99 98 99 99 99 100 100 100 100 91 100 99 90 98 94 98 100 100 96 100 100 100 100 100 100 100 100 99 99 99 99 100 99
90 89 85 83 84 85 89 95 96 98 98 98 98 99 99 99 99 100 100 100 98 99 99 97 98 99 92 99 99 100 100 100 100 100 100 100 100 100 100 99 99 99 99
93 91 89 88 86 87 88 85 86 91 95 96 97 97 98 98 98 99 99 99 99 100 99 99 100 92 96 99 98 99 100 99 100 100 100 100 100 100 99 99 100 100 99
82 86 89 90 88 88 86 87 87 87 86 86 94 96 96 96 98 96 95 98 97 97 98 97 98 99 100 100 99 99 99 99 100 100 99 99 100 100 99 99 99 99 98
78 78 79 80 82 84 87 87 86 87 86 86 88 88 90 94 94 94 95 97 96 95 95 96 96 97 97 96 97 98 98 98 99 98 98 98 98 98 99 100 99 98 97
66 66 66 68 74 76 77 78 83 87 88 90 91 92 94 91 91 91 94 96 95 95 96 96 96 96 96 96 96 96 96 96 96 97 96 96 96 96 96 96 96 95 95
58 59 60 61 62 63 67 73 78 79 83 88 92 91 90 91 92 93 93 93 95 96 98 95 96 95 95 95 96 96 96 95 95 96 96 95 96 96 96 96 96 96 95
28 30 31 35 42 52 57 61 67 71 75 80 81 84 91 94 92 93 94 94 94 93 92 95 96 96 96 96 97 97 97 96 96 97 96 94 94 95 95 95 94 91 86
16 16 16 19 22 27 30 35 44 54 61 68 74 79 80 80 81 84 91 94 95 95 95 95 94 95 93 91 89 89 90 90 90 91 93 93 93 94 76 62 35 18 11
8 8 7 8 8 10 13 19 30 42 52 59 68 75 79 80 80 77 72 68 65 65 82 96 97 95 94 90 87 74 58 51 48 36 28 22 17 13 10 9 9 9 9
6 6 6 6 6 6 6 7 7 9 18 36 58 72 76 77 75 75 72 66 58 50 43 37 31 30 40 46 54 54 55 55 42 22 12 9 9 9 9 9 9 9 9
7 7 7 7 7 7 7 7 8 8 8 9 10 17 40 69 84 86 82 78 74 67 60 43 32 22 16 14 12 11 10 10 10 10 9 9 9 9 9 9 9 9 8
8 8 9 10 11 12 13 13 12 11 11 11 11 11 12 12 15 26 42 59 73 82 81 75 70 53 33 22 15 13 12 11 11 11 10 10 10 10 10 9 9 9 9
10 12 13 14 16 17 18 18 18 17 15 14 12 12 13 14 14 14 14 14 16 18 20 24 33 43 47 40 26 22 14 13 12 12 12 11 11 11 11 11 11 11 11
13 14 16 17 18 18 19 19 19 19 19 18 17 16 15 15 16 17 18 17 16 16 16 16 16 16 16 16 16 16 16 15 14 14 14 14 14 14 14 14 14 14 15
14 15 16 16 17 17 18 20 21 21 22 23 23 22 22 22 22 22 21 21 21 21 20 20 20 19 19 19 19 19 19 18 18 18 17 17 17 17 17 17 17 17 17

GFSGL_700_rhum_105.txt.gz
RH
71 72 56 51 50 65 73 64 46 58 53 63 47 48 48 64 72 61 82 100 78 70 69 66 68 48 62 76 93 94 99 100 98 100 95 84 83 93 98 98 100 100 99
71 71 72 64 57 56 60 54 53 50 62 64 47 42 40 56 76 72 79 98 91 84 74 73 50 60 71 79 97 95 99 100 100 100 95 91 97 95 100 99 100 100 98
78 96 90 79 71 68 62 65 68 73 68 70 60 48 51 69 91 86 88 94 78 88 81 77 38 68 71 84 99 98 99 96 97 99 99 99 98 100 100 100 99 99 99
81 82 88 95 92 83 83 81 75 69 62 67 71 66 62 70 92 75 79 87 96 87 84 47 53 71 95 100 78 100 99 99 98 100 93 97 98 100 100 98 100 99 100
90 94 87 99 100 98 99 100 96 84 94 86 75 73 64 64 65 73 85 88 87 84 72 62 71 82 88 84 88 93 98 95 99 100 100 95 100 99 98 98 99 100 100
93 98 99 100 98 100 98 100 96 99 100 92 86 83 79 75 77 79 90 91 87 76 43 46 96 62 71 89 100 100 99 97 99 100 99 100 100 99 100 98 98 100 99
96 98 100 99 100 99 100 100 92 100 99 98 99 99 94 89 84 78 79 85 84 62 48 56 49 69 89 96 98 100 100 100 99 100 100 100 100 100 100 99 100 100 99
96 97 98 100 99 98 99 100 100 86 96 100 98 100 100 99 100 96 94 86 80 63 40 40 55 77 100 98 94 95 100 100 100 100 100 100 100 100 100 100 100 99 100
97 97 97 97 98 99 98 97 83 90 99 99 99 100 100 100 99 100 100 93 80 49 41 49 59 98 100 99 95 91 98 100 100 100 100 100 99 100 99 100 99 99 99
90 96 96 96 97 97 98 97 99 99 98 99 99 99 99 100 100 100 97 99 67 50 52 54 61 92 100 98 99 98 92 98 100 100 99 100 99 99 99 99 99 99 99
86 88 92 88 82 87 96 98 97 97 98 98 98 99 99 100 99 99 100 92 86 87 62 96 99 100 100 97 100 91 91 98 95 100 99 100 100 99 100 99 99 100 100
85 84 83 82 82 81 82 84 95 97 97 97 97 98 98 98 99 99 100 98 98 98 100 100 100 100 100 96 100 100 98 93 100 100 99 100 100 100 100 100 99 99 99
84 82 79 80 81 80 80 78 79 79 84 96 96 96 97 97 97 98 98 98 99 99 99 99 100 100 100 100 100 100 100 100 100 100 100 100 99 100 100 100 100 100 100
73 74 73 74 74 75 76 78 77 77 77 77 84 92 95 96 96 96 96 96 98 95 97 99 99 98 99 99 99 99 100 100 100 100 100 100 100 100 100 100 99 99 100
56 56 56 56 57 60 63 66 68 74 76 77 78 78 82 88 92 94 95 96 93 94 94 96 97 97 97 96 97 98 98 98 99 99 99 99 100 99 99 100 99 99 100
50 49 48 48 48 49 50 54 55 58 63 70 76 83 84 83 84 85 86 91 94 95 96 96 96 93 95 96 96 97 95 96 96 97 97 97 97 98 98 97 97 96 96
18 17 16 16 17 19 23 27 37 52 58 60 65 69 71 79 84 86 88 89 90 94 95 94 94 95 95 95 95 95 95 96 96 96 96 96 96 96 96 96 96 96 96
10 9 9 8 8 8 9 11 14 16 21 29 47 59 68 71 71 73 80 85 87 88 90 90 92 94 96 96 96 96 97 98 97 96 97 97 98 97 97 96 97 96 95
9 9 9 9 8 8 7 7 7 7 7 10 15 25 40 55 68 73 73 74 75 80 87 90 93 95 96 95 96 96 97 98 98 98 98 98 97 98 97 97 96 96 95
11 10 10 10 9 9 8 8 7 7 7 6 6 8 14 27 44 61 72 75 75 73 70 67 69 83 88 90 92 93 92 93 94 94 93 90 85 84 82 80 80 75 65
11 9 8 7 7 7 7 6 6 6 6 6 6 6 7 8 12 36 61 75 71 67 66 62 55 47 41 42 61 79 88 92 94 91 81 60 42 24 17 14 12 10 10
9 8 7 7 7 7 7 8 7 8 8 9 9 8 9 9 9 10 12 27 62 81 79 68 60 54 40 29 23 18 16 16 17 18 21 26 26 25 19 12 10 9 9
7 6 7 7 8 9 10 12 14 15 15 15 15 15 14 13 12 12 12 12 13 17 28 47 67 72 66 55 42 25 17 14 13 12 12 11 11 11 11 10 10 10 10
6 6 7 7 9 10 12 13 15 16 17 18 18 18 18 17 16 14 13 14 15 15 15 16 17 20 28 40 60 61 38 30 22 16 14 13 13 12 12 11 11 11 10
7 9 10 11 12 13 14 14 16 16 17 17 19 20 20 20 20 19 18 17 17 17 18 18 18 18 18 18 19 20 21 23 26 30 27 21 16 14 14 13 13 13 13
12 13 14 15 16 18 19 20 21 22 23 22 20 20 21 23 24 24 23 22 23 23 22 22 22 22 22 21 21 21 21 20 20 19 18 18 18 17 17 17 16 16 16

GFSGL_700_rhum_108.txt.gz
RH
40 49 46 64 69 56 63 65 66 57 50 40 56 59 45 43 41 43 51 82 94 88 85 73 87 82 78 75 75 66 65 74 78 79 94 88 94 94 99 100 91 99 98
41 46 45 50 66 69 70 69 74 69 85 67 61 68 65 65 58 54 48 58 61 61 64 73 91 99 87 69 83 65 71 82 90 99 92 92 99 100 98 97 98 97 97
49 49 57 66 78 80 77 75 74 78 90 95 99 94 82 76 59 52 57 56 55 76 92 95 99 97 79 78 74 68 81 88 93 97 89 99 96 98 100 100 100 98 100
66 62 62 78 86 79 92 91 76 73 77 90 83 99 84 100 68 49 52 68 80 74 84 78 89 83 81 86 51 72 77 90 99 98 99 95 94 90 98 97 100 100 99
78 78 85 92 88 94 92 90 99 87 87 73 82 85 83 94 82 82 90 86 86 92 74 68 86 84 87 60 64 68 81 100 84 97 99 95 100 96 93 96 99 98 99
85 84 93 99 96 98 98 97 99 94 92 99 90 88 97 90 82 70 86 94 96 83 92 88 92 86 69 64 70 82 85 82 87 89 90 94 93 98 100 98 100 100 99
95 95 95 98 98 100 96 98 100 100 99 100 100 99 100 95 94 87 83 98 92 85 96 100 95 87 50 42 83 63 69 89 98 100 100 99 100 99 99 100 99 100 100
100 100 98 94 97 98 98 98 99 99 100 99 99 98 99 100 99 100 93 98 99 90 99 100 93 77 46 95 60 75 83 100 97 99 99 100 99 100 100 100 100 100 100
98 97 94 96 97 96 97 98 98 97 98 99 100 100 98 100 100 100 100 100 100 100 99 97 89 94 60 52 61 67 94 89 90 100 100 100 100 100 100 100 99 100 100
91 91 95 96 96 96 96 96 96 97 96 98 99 99 100 100 99 100 100 100 100 100 100 100 100 96 62 59 88 90 96 98 100 100 100 100 100 99 99 99 100 99 99
81 84 86 83 81 88 93 91 95 96 98 95 96 97 98 98 99 99 100 100 100 100 99 100 97 88 64 70 77 87 99 100 100 100 98 100 100 99 98 99 99 98 99
80 82 82 79 77 77 77 77 83 89 94 95 95 96 96 97 98 98 98 98 99 99 99 99 100 82 77 79 81 100 92 99 95 98 100 99 100 99 100 99 100 99 99
68 67 64 64 63 65 68 70 74 74 71 74 80 91 94 95 95 96 96 97 97 98 99 99 99 99 100 100 100 100 100 100 100 98 98 100 100 99 100 100 100 100 100
56 56 55 54 53 53 54 55 57 56 60 67 71 73 74 82 93 96 96 96 96 96 95 96 98 98 100 99 100 100 100 100 100 100 99 99 100 100 100 100 100 100 100
25 22 19 17 18 19 17 20 24 31 38 42 47 53 68 78 75 76 83 91 94 96 96 96 94 96 97 96 97 96 96 98 98 99 99 99 99 100 99 99 99 99 99
11 10 9 8 8 8 8 8 9 9 10 14 22 33 42 48 59 73 78 76 80 82 88 94 95 95 92 95 96 93 96 97 95 96 97 96 97 96 97 97 97 97 98
10 10 10 10 10 10 10 10 9 9 8 8 8 10 16 20 31 45 58 66 74 78 80 83 87 88 93 95 95 94 97 92 95 96 96 95 95 96 96 96 96 96 96
14 15 15 15 15 14 14 13 12 11 10 9 8 8 8 8 12 20 29 38 56 65 72 83 87 87 89 91 94 96 95 95 96 95 95 95 95 95 96 95 95 96 96
19 19 18 17 16 15 14 13 12 11 10 9 7 7 7 7 7 8 13 25 35 47 59 68 71 79 89 92 93 93 94 96 96 95 95 96 95 94 95 94 95 95 95
20 18 15 13 11 9 8 7 6 6 6 6 6 6 6 6 6 6 7 9 18 41 52 64 70 68 65 66 85 91 93 95 96 98 98 97 96 96 96 96 96 96 96
15 12 9 6 6 5 5 5 5 5 5 6 5 6 7 8 8 8 8 8 8 12 45 63 67 66 62 56 47 42 51 74 90 95 95 91 91 91 92 92 87 85 79
10 7 5 5 4 5 6 7 7 8 8 8 9 10 9 11 14 14 14 13 11 11 12 15 42 75 70 58 50 42 31 23 20 23 30 41 55 75 89 95 87 64 41
5 5 5 5 6 8 8 9 10 11 11 12 12 13 13 13 15 16 17 18 16 14 13 13 14 16 28 57 71 63 43 27 19 16 14 13 12 12 12 12 12 16 17
6 6 7 8 9 10 11 12 13 14 15 15 16 16 16 16 16 16 16 19 19 18 17 15 16 16 16 16 21 29 48 56 54 36 21 16 14 14 13 13 12 12 12
7 8 11 13 14 14 15 16 16 17 18 19 21 22 23 22 21 20 18 16 20 23 21 20 19 19 20 19 19 19 20 22 24 32 52 42 34 27 20 18 16 14 14
12 15 16 15 15 15 15 16 17 18 19 20 24 26 30 32 34 32 28 24 20 23 26 25 24 24 22 23 24 24 23 23 22 22 21 22 22 25 33 31 32 23 19

GFSGL_700_rhum_111.txt.gz
RH
10 26 37 35 35 35 47 64 64 58 59 59 55 47 36 68 99 87 63 50 46 62 79 76 67 83 94 85 78 95 89 72 72 56 61 91 94 100 88 99 93 91 100
30 41 36 38 47 44 49 58 72 70 64 73 73 77 59 75 96 92 68 56 64 76 57 77 95 92 100 92 74 83 100 90 78 66 73 77 96 100 100 95 97 91 95
54 47 42 52 54 56 62 62 78 80 75 70 78 75 77 81 99 95 86 72 69 59 79 99 75 96 91 88 89 94 82 98 80 74 87 93 96 100 97 99 84 89 93
59 64 67 67 68 72 72 75 69 74 66 84 80 84 82 98 99 99 93 80 66 72 85 98 92 89 94 72 75 98 98 92 67 82 90 91 93 96 94 92 86 86 95
79 84 84 83 79 76 78 81 79 93 84 98 95 99 99 94 92 88 98 96 76 73 86 98 85 92 100 99 99 99 94 88 57 87 85 77 93 89 94 83 91 89 78
88 94 93 95 92 100 100 96 89 86 98 100 100 94 92 90 99 98 87 87 92 77 86 95 90 91 90 87 97 95 95 94 87 78 72 90 75 79 86 96 98 100 94
100 97 99 100 98 98 98 100 100 94 100 100 100 100 88 93 100 82 89 87 97 96 99 96 98 92 100 93 96 96 93 85 88 97 85 80 90 85 82 83 83 94 93
97 97 100 99 98 99 97 98 97 96 98 100 100 100 99 99 100 97 99 98 96 100 100 99 96 95 90 100 99 99 100 77 96 77 86 88 98 95 94 100 100 100 100
98 98 96 96 96 96 97 94 95 97 95 95 98 99 100 99 100 100 100 99 100 100 100 100 96 91 100 100 100 100 91 96 80 84 96 94 90 100 100 100 100 100 100
96 94 92 92 85 81 87 93 96 96 96 96 96 96 96 97 99 99 99 99 100 99 96 94 99 95 100 100 100 100 98 69 95 100 99 86 98 100 98 100 99 99 100
85 83 77 73 68 68 76 80 78 75 86 95 96 97 97 95 96 98 98 99 99 100 100 100 100 96 100 98 100 100 75 73 96 100 100 97 91 99 100 100 100 100 100
73 66 57 51 47 48 55 62 65 68 68 67 66 74 92 94 94 96 97 97 98 97 95 99 100 100 100 100 100 100 86 81 100 98 100 94 98 98 99 100 100 100 99
50 40 28 23 22 24 28 28 31 32 32 35 41 53 61 64 73 92 92 92 94 96 96 96 97 98 99 100 100 99 94 100 100 100 86 97 92 96 97 100 99 99 100
12 11 10 9 9 9 9 9 9 9 8 8 10 13 25 44 62 69 68 72 89 96 97 96 96 96 97 98 98 99 99 100 100 100 100 100 99 99 98 100 86 99 100
10 11 11 12 13 13 13 13 13 12 12 11 10 10 8 9 10 20 42 61 74 72 72 83 92 94 95 95 96 96 97 97 98 99 100 100 100 100 99 99 100 100 100
15 16 17 17 17 17 17 16 16 15 15 14 13 12 12 10 10 9 9 13 32 50 67 76 74 76 84 94 95 95 96 96 96 97 96 96 98 98 97 98 99 99 99
20 20 20 19 19 18 17 16 16 14 13 13 13 13 12 12 11 10 9 9 9 12 25 49 68 77 76 79 83 88 94 96 96 96 96 95 96 95 95 96 96 96 97
23 23 21 19 16 14 12 10 8 7 6 6 6 6 7 8 8 8 8 8 9 10 13 20 39 58 70 78 81 82 88 90 93 94 96 96 95 95 96 96 95 94 96
22 19 16 12 8 7 5 4 4 4 3 3 4 4 4 4 4 5 6 6 6 7 10 22 33 49 62 66 72 83 89 91 94 96 95 94 95 96 96 97 96 95 96
18 13 9 6 4 4 4 4 4 4 4 4 4 5 5 5 5 5 6 6 7 7 7 8 29 52 59 60 58 58 69 88 92 94 95 97 97 98 100 100 98 95 96
13 8 5 4 4 4 5 6 7 8 8 9 8 8 8 8 8 7 7 8 10 10 10 10 10 15 53 60 51 44 38 38 55 75 89 94 94 91 94 95 96 95 94
8 5 4 5 6 8 9 10 10 11 11 12 12 11 11 11 10 11 11 10 11 14 15 15 14 12 12 19 54 50 40 32 25 23 27 39 48 69 88 94 95 91 75
5 5 7 8 10 10 11 12 12 12 12 12 13 13 13 13 12 12 14 15 14 14 16 18 18 16 14 14 15 19 39 47 37 27 20 17 15 14 14 16 19 28 54
6 9 10 11 12 14 15 15 16 15 15 15 15 16 16 16 16 16 15 15 18 19 17 18 20 19 18 16 17 18 18 20 28 37 40 38 25 17 15 14 14 13 13
10 12 13 16 17 18 18 17 17 16 15 17 18 19 21 22 22 23 22 20 19 24 27 23 22 23 24 21 20 20 22 21 21 22 24 26 35 55 40 25 19 16 15
13 16 18 19 19 18 16 16 16 16 18 19 19 22 24 26 28 29 29 32 33 37 36 35 32 25 28 29 26 25 25 25 25 24 25 25 24 24 24 27 44 59 49

GFSGL_700_rhum_114.txt.gz
RH
2 3 3 4 15 26 25 23 22 29 30 41 54 50 49 44 43 44 45 45 85 96 86 88 72 71 75 84 90 98 80 77 74 81 72 71 47 39 79 86 92 98 95
8 11 26 32 28 28 29 30 29 36 40 44 63 65 61 66 68 59 56 66 83 96 77 74 64 75 80 84 94 92 80 85 96 90 81 80 58 74 94 96 94 99 98
33 53 51 47 41 41 38 38 42 49 54 52 63 79 72 71 79 76 86 98 96 94 73 61 72 74 79 76 76 92 88 97 99 99 99 91 67 80 88 97 99 88 100
62 64 68 68 65 59 56 49 52 58 67 65 65 80 75 82 86 79 81 98 97 93 81 76 83 78 83 90 100 96 93 99 100 96 96 96 69 85 94 98 94 100 100
80 78 79 79 78 78 74 68 69 76 77 74 85 99 94 95 87 92 95 99 94 87 96 96 93 91 94 99 94 86 82 92 100 99 97 97 74 83 83 86 92 89 80
85 86 88 89 92 93 91 96 100 100 93 94 100 100 99 98 100 96 99 100 97 100 95 90 100 90 90 100 99 90 97 100 100 100 97 80 59 83 79 79 88 94 88
94 93 94 96 96 94 97 100 98 92 94 100 100 100 99 98 100 100 100 98 100 100 100 89 99 100 100 100 100 98 100 100 100 100 97 93 87 76 76 84 80 89 96
96 96 96 95 96 97 96 96 96 96 96 98 98 100 99 98 99 100 100 99 100 98 86 99 93 99 97 98 99 99 91 98 100 99 92 93 92 91 80 88 87 82 98
96 95 96 94 93 92 83 87 89 94 96 97 97 97 97 98 99 99 99 99 99 99 99 100 96 99 99 100 98 100 98 99 95 94 97 100 94 86 86 78 97 99 97
93 80 73 68 64 55 49 47 52 64 69 78 91 97 97 97 98 97 98 98 98 99 99 99 97 100 99 91 99 100 100 100 100 100 80 85 84 91 95 88 91 100 100
56 54 49 39 30 23 23 26 21 26 35 42 53 67 74 90 97 96 97 97 97 98 99 99 100 100 100 99 100 99 100 99 98 100 98 91 100 94 90 94 100 99 99
25 16 12 10 10 9 9 9 9 9 9 10 12 17 22 37 59 72 87 94 94 96 96 96 97 98 100 100 99 100 100 92 99 100 83 77 90 99 98 94 100 98 100
10 10 9 10 10 11 12 12 12 12 12 12 11 11 10 9 11 20 34 65 74 86 95 89 93 95 97 97 98 99 99 100 100 100 100 90 100 99 100 98 99 99 100
12 14 15 16 16 16 16 16 15 15 14 14 14 13 12 12 11 10 9 10 21 38 67 69 88 89 86 94 95 97 97 98 99 100 100 97 99 95 100 92 100 96 99
18 18 18 18 18 18 17 16 16 15 13 13 12 12 12 12 12 12 12 11 10 9 12 20 46 68 71 89 92 92 95 96 96 97 98 99 100 96 98 99 100 100 100
21 21 21 20 19 17 15 13 12 10 9 7 6 6 6 6 8 9 10 11 12 11 10 10 14 27 46 73 75 81 92 97 96 97 97 96 97 97 99 100 100 99 100
22 22 20 18 16 14 12 8 6 4 4 3 3 3 2 2 3 3 4 5 7 9 10 11 11 12 18 37 57 76 81 84 91 96 95 94 95 96 96 96 96 97 97
23 22 20 17 14 10 7 5 4 3 3 3 3 3 3 3 3 3 3 3 3 4 6 7 8 12 18 26 37 55 71 80 84 88 93 94 94 95 95 96 96 96 96
22 22 17 11 7 5 4 4 4 5 5 5 6 6 6 6 6 5 5 4 4 4 4 5 6 7 12 28 45 54 62 74 83 88 92 95 98 100 97 96 97 95 95
23 19 12 7 5 4 5 6 6 7 8 8 8 8 8 8 8 8 8 7 7 6 6 5 6 7 8 9 30 51 55 57 66 82 90 96 99 100 100 100 97 97 97
21 13 7 5 5 7 8 9 10 11 12 13 13 13 13 13 12 12 11 10 10 10 8 7 8 10 11 11 10 12 47 53 45 44 62 75 84 90 96 98 98 98 99
15 7 5 6 8 10 12 12 13 14 14 15 16 15 15 15 14 14 14 13 13 13 13 12 10 10 14 15 14 13 13 25 52 45 33 28 39 50 66 90 96 98 98
8 6 8 10 12 13 14 14 15 16 16 15 14 13 13 13 13 13 13 13 15 16 16 17 17 14 14 16 17 17 15 15 17 36 46 36 24 17 18 21 29 43 80
6 8 12 14 14 15 15 15 15 15 13 12 12 12 13 14 14 15 17 18 19 21 23 23 24 24 20 18 18 20 19 17 17 19 22 32 38 37 23 16 14 14 14
10 14 15 15 15 16 16 15 13 11 10 11 12 13 15 15 17 21 24 25 26 26 27 29 30 36 33 27 22 22 23 22 21 21 22 23 25 26 32 36 27 18 16
15 16 16 17 17 16 14 12 10 11 12 14 16 18 19 20 21 23 26 28 31 34 36 36 37 41 48 47 36 27 28 28 27 26 26 26 26 25 25 25 33 49 38

GFSGL_700_rhum_117.txt.gz
RH
4 4 4 4 4 4 4 2 3 6 11 11 14 17 23 28 44 44 42 39 36 31 27 37 47 69 83 79 73 82 89 89 98 99 94 75 72 81 71 60 42 60 76
12 10 9 10 18 19 22 18 14 19 17 15 18 24 30 35 47 51 49 56 60 59 48 47 62 94 90 95 71 83 84 84 99 100 95 82 77 80 76 63 47 58 81
17 22 31 39 42 40 44 37 34 30 25 28 30 30 35 43 49 64 61 60 66 74 83 72 89 98 98 97 87 84 95 97 99 99 80 96 97 96 82 71 62 61 84
52 64 71 74 72 64 60 57 51 45 50 49 48 48 52 53 54 65 71 70 73 80 91 99 93 96 93 90 83 80 95 98 94 94 99 89 100 99 95 78 62 60 85
78 92 92 86 84 82 83 80 78 76 70 64 64 65 63 61 64 70 81 83 91 98 93 97 100 95 78 81 77 79 95 97 88 100 99 96 98 99 94 84 64 68 92
97 98 98 96 93 96 93 92 96 95 91 88 84 79 77 80 80 92 95 99 98 99 98 99 99 88 93 83 99 81 97 95 98 95 86 91 93 100 100 97 72 78 90
96 96 96 95 97 92 89 89 84 85 91 94 92 92 92 96 98 94 98 99 100 99 98 99 96 90 95 99 90 87 98 98 98 98 96 93 98 100 99 96 80 88 89
97 97 98 98 95 77 70 65 60 56 67 79 88 87 86 90 94 97 99 99 99 100 99 100 99 100 99 99 89 80 95 98 99 99 98 94 100 99 100 86 90 89 83
96 96 92 71 55 44 37 32 28 25 22 32 45 70 82 77 85 94 96 97 98 98 99 99 99 99 100 100 99 98 100 99 100 99 100 100 99 99 100 96 84 83 78
71 50 36 25 14 10 9 9 9 9 9 10 10 15 38 75 82 83 88 95 97 97 97 98 99 99 99 95 100 100 100 100 100 99 92 100 100 100 99 99 100 79 83
18 11 10 9 10 11 11 12 12 12 12 11 10 10 10 10 13 34 81 99 85 89 95 97 98 98 99 100 99 98 100 99 100 100 99 96 92 99 96 100 99 96 98
10 10 11 13 14 14 14 15 15 14 14 13 12 12 12 11 11 10 11 18 51 90 96 83 92 94 97 98 99 99 99 100 100 99 100 100 100 99 99 99 100 99 98
14 15 17 17 18 18 18 17 16 15 14 13 12 11 11 11 12 12 12 11 10 11 20 54 93 94 87 86 95 97 98 98 99 99 99 99 100 100 100 100 100 99 98
18 19 20 20 19 18 17 16 14 13 12 9 8 6 6 5 5 6 7 9 11 12 11 11 19 61 91 94 98 88 88 97 98 98 98 99 100 100 100 98 88 100 97
21 20 19 18 17 16 15 14 12 10 8 7 6 5 4 3 3 3 2 2 3 5 8 11 11 13 23 56 85 89 97 92 84 95 97 97 97 99 99 99 100 100 91
18 18 18 18 17 15 13 10 9 8 6 6 4 4 3 3 3 2 2 2 2 2 2 3 6 9 11 12 20 54 80 87 97 97 88 93 96 96 97 98 99 99 99
17 20 20 20 17 14 11 8 6 6 4 4 4 4 4 4 4 4 4 3 3 3 3 2 2 2 4 8 11 20 44 76 87 89 96 97 97 97 97 96 95 96 97
20 22 22 22 19 14 10 8 6 5 5 6 6 6 6 7 7 7 6 6 6 5 5 4 4 4 3 3 5 8 16 38 70 85 91 95 98 96 96 99 96 95 96
24 25 25 21 15 10 7 5 6 7 8 8 9 10 10 10 9 9 9 9 9 8 8 7 6 6 6 5 4 4 6 14 35 55 80 91 97 100 99 95 96 96 95
27 27 23 16 9 6 6 7 8 9 9 10 10 11 11 11 11 11 11 11 12 11 11 11 10 9 8 8 7 6 6 8 14 38 51 61 85 95 96 98 100 96 96
29 25 20 12 6 6 7 9 10 10 11 11 10 10 10 10 9 9 9 9 9 9 10 11 12 12 12 11 10 10 9 10 10 14 42 47 46 62 79 92 96 98 99
27 21 14 7 6 8 10 11 11 11 11 11 11 10 9 8 8 8 9 9 10 10 10 11 10 11 12 13 13 13 13 14 14 13 14 38 41 32 39 54 82 96 97
21 14 7 7 9 10 11 12 12 12 11 10 9 8 8 9 10 12 13 14 15 15 15 15 15 15 15 16 16 16 16 16 17 17 15 16 34 36 24 21 31 37 75
15 8 8 10 12 12 12 12 12 11 9 8 8 9 10 12 13 16 18 19 19 20 20 20 21 20 20 20 21 22 23 21 20 21 19 18 19 26 31 24 18 16 18
8 8 12 14 13 13 13 13 10 9 8 9 9 11 14 16 18 20 21 22 22 25 27 29 31 32 29 26 26 28 30 32 26 26 25 23 22 22 25 27 25 22 18
9 13 15 14 14 14 12 10 8 9 10 11 13 15 17 19 21 23 24 25 26 28 32 36 40 43 44 40 35 34 40 46 40 32 32 30 28 27 27 27 26 25 27

GFSGL_700_rhum_123.txt.gz
RH
19 20 28 42 21 16 14 15 15 18 21 23 19 21 20 18 15 13 15 15 18 18 22 22 34 38 41 37 33 31 28 32 41 58 66 69 83 83 72 60 64 74 73
31 33 32 30 29 32 36 45 48 54 59 55 48 45 42 36 29 24 26 23 24 28 34 42 52 55 49 52 51 43 35 38 59 70 66 82 87 85 84 80 77 73 82
56 63 77 79 74 73 78 84 83 84 82 77 70 65 61 59 57 56 52 48 51 48 54 54 54 62 62 60 55 63 63 63 68 67 69 75 80 83 88 84 82 96 99
89 96 100 100 99 94 95 98 97 89 85 76 71 75 77 74 79 75 71 73 74 74 70 69 69 68 67 74 76 71 72 90 87 79 82 99 98 99 100 99 95 91 99
98 99 100 99 100 97 99 96 87 81 80 73 69 61 64 76 80 88 89 84 80 87 93 97 96 100 99 100 100 97 98 84 92 99 99 96 100 99 96 97 99 94 97
96 99 98 98 100 95 92 70 63 58 56 62 79 83 73 63 61 65 72 86 91 97 96 97 100 100 98 100 100 100 96 100 99 99 95 96 100 91 94 98 100 100 100
97 98 97 98 96 90 43 23 14 12 11 10 11 12 17 33 58 75 74 66 72 80 88 95 97 99 99 98 96 99 100 97 90 100 99 99 97 93 88 99 94 97 99
98 98 93 89 31 12 10 11 12 12 12 12 12 12 11 11 10 11 17 41 62 62 57 74 85 91 95 99 99 100 99 99 99 95 98 100 99 97 86 99 96 100 99
88 86 19 11 11 13 14 15 14 14 13 13 12 11 10 10 10 10 10 10 10 12 38 70 62 61 89 95 97 98 98 99 99 100 100 100 100 100 99 99 100 96 94
15 10 12 15 16 17 17 16 15 14 13 11 10 9 8 6 6 5 5 5 6 8 10 10 15 63 70 59 91 96 97 98 99 98 99 99 100 99 97 98 100 97 93
11 15 18 19 19 18 16 15 13 12 11 10 8 7 7 6 5 5 4 3 3 3 3 4 7 9 11 58 76 86 94 96 97 97 98 98 99 99 99 99 100 100 99
18 20 20 19 17 16 14 13 12 11 10 8 8 7 7 6 6 5 4 4 3 3 3 2 2 2 3 8 11 34 94 92 96 97 97 97 99 99 100 100 100 100 100
21 20 19 18 17 16 15 13 12 12 11 10 9 8 7 6 4 4 3 3 3 3 2 2 2 2 2 2 2 3 9 21 94 87 94 96 97 98 98 99 99 99 100
20 20 20 20 21 19 17 15 14 14 13 11 10 9 7 6 5 4 3 3 2 2 2 2 2 2 2 2 3 2 2 2 8 27 84 84 93 95 96 98 98 99 99
20 21 23 24 25 23 20 17 16 15 13 12 10 8 6 5 5 4 3 3 3 3 3 3 3 3 2 2 2 2 2 2 2 4 11 36 92 90 94 96 97 97 98
21 24 27 29 29 26 22 17 14 13 12 10 8 6 5 5 4 4 3 3 3 3 3 3 3 3 3 3 3 3 3 3 3 3 2 5 12 52 93 95 95 96 96
23 28 32 33 31 26 20 15 12 12 11 9 7 5 5 4 4 4 4 4 4 4 4 4 3 3 3 3 3 3 3 4 4 4 4 3 3 7 15 64 91 95 96
25 31 35 35 32 28 21 16 12 10 9 8 6 5 5 5 5 4 5 5 5 4 4 4 4 4 4 4 4 4 4 4 5 5 6 6 5 4 4 13 36 78 93
25 35 38 36 32 25 17 12 9 8 7 6 6 6 6 5 5 6 6 5 5 5 5 5 5 5 5 5 5 5 5 5 5 5 6 7 8 7 5 5 13 26 66
28 40 39 34 29 20 13 10 8 7 6 6 6 6 6 6 6 6 6 6 6 6 6 6 6 6 7 7 6 6 6 6 6 6 7 7 9 10 8 7 9 21 35
36 43 38 32 26 16 11 8 7 7 7 7 7 7 7 7 7 7 6 6 6 6 6 6 6 7 9 11 12 12 10 9 9 10 9 9 9 11 12 10 10 18 32
43 43 36 29 21 14 9 8 8 8 8 8 8 8 8 8 8 7 7 6 6 8 10 12 14 15 16 17 17 17 16 14 13 13 14 13 13 13 13 13 13 16 28
46 40 32 25 17 11 8 9 9 9 9 9 9 9 9 8 8 7 7 8 10 13 15 18 20 22 23 24 24 24 22 20 18 16 16 17 16 17 19 17 17 17 23
46 36 26 17 12 9 10 10 10 10 10 10 10 10 9 8 8 8 9 12 15 18 21 22 24 26 28 30 31 31 30 28 26 25 24 22 22 22 25 23 22 22 22
43 30 20 13 10 11 11 11 12 11 11 11 11 10 9 8 8 9 12 16 19 22 24 26 27 29 32 35 37 38 38 38 36 33 32 31 30 27 30 32 29 28 26
37 24 16 12 12 12 13 13 13 12 12 12 11 10 9 9 10 11 13 16 21 25 28 30 32 34 36 38 41 43 44 45 46 44 42 40 38 36 41 45 37 35 33